UAE32E OMDB-KBOS

Flight info

Callsign UAE32E
Flight time N/A
Altitude 28000
Route DAVMO M318 GABKO M317 ROTAL P574 SYZ/N0507F300 P550 DASIS UL746 ODERO/N0493F320 DCT LUGEB DCT BADOR DCT ABULI DCT HDO DCT ZUCKA DCT RAVLO Y70 OTBED L60 PENIL M144 OGTUG/N0482F340 M144 BAGSO DCT OLAPO DCT CON DCT DOGAL/M084F340 DCT 54N020W 53N030W 5130N04000W 50N050W DCT ELSIR/N0486F360 DCT TUSKY DCT EURRO OOSHN5
Aircraft B77W/H-SDE1E2E3FGHIJ2J3J4J5M1RWXY/LB1D1

Departure

Time 2026-05-07 20:12
Airport Dubai International Airport (OMDB)

Arrival

Time N/A
Airport Boston Logan International Airport (KBOS)
Time Latitude Longitude Altitude Speed Heading
2026-05-07 19:17 25.24959 55.36147 24 ft 0 kts 212°
2026-05-07 19:58 25.24975 55.36158 26 ft 4 kts 211°
2026-05-07 19:58 25.24998 55.36174 28 ft 4 kts 211°
2026-05-07 19:59 25.25021 55.36189 27 ft 4 kts 211°
2026-05-07 19:59 25.25041 55.36196 27 ft 4 kts 145°
2026-05-07 19:59 25.25057 55.36175 27 ft 4 kts 120°
2026-05-07 19:59 25.25062 55.36166 28 ft 1 kts 122°
2026-05-07 20:02 25.25061 55.36174 27 ft 2 kts 99°
2026-05-07 20:02 25.25070 55.36186 28 ft 3 kts 34°
2026-05-07 20:02 25.25086 55.36177 25 ft 3 kts 309°
2026-05-07 20:03 25.25077 55.36154 26 ft 4 kts 226°
2026-05-07 20:03 25.25079 55.36135 28 ft 1 kts 298°
2026-05-07 20:03 25.25079 55.36134 28 ft 0 kts 300°
2026-05-07 20:04 25.25081 55.36130 27 ft 3 kts 300°
2026-05-07 20:04 25.25102 55.36091 23 ft 10 kts 301°
2026-05-07 20:04 25.25160 55.35989 22 ft 22 kts 302°
2026-05-07 20:05 25.25258 55.35812 18 ft 32 kts 301°
2026-05-07 20:05 25.25390 55.35575 16 ft 31 kts 301°
2026-05-07 20:05 25.25494 55.35385 18 ft 28 kts 301°
2026-05-07 20:05 25.25591 55.35211 24 ft 21 kts 303°
2026-05-07 20:06 25.25670 55.35168 26 ft 0 kts
2026-05-07 20:06 25.25671 55.35168 26 ft 1 kts
2026-05-07 20:06 25.25729 55.35188 21 ft 18 kts 22°
2026-05-07 20:06 25.25888 55.35300 9 ft 27 kts 33°
2026-05-07 20:07 25.25986 55.35473 8 ft 27 kts 91°
2026-05-07 20:07 25.25926 55.35641 7 ft 21 kts 121°
2026-05-07 20:07 25.25817 55.35838 8 ft 38 kts 121°
2026-05-07 20:07 25.25666 55.36108 13 ft 43 kts 122°
2026-05-07 20:08 25.25509 55.36394 13 ft 43 kts 121°
2026-05-07 20:08 25.25381 55.36627 12 ft 36 kts 122°
2026-05-07 20:08 25.25249 55.36862 16 ft 36 kts 121°
2026-05-07 20:08 25.25117 55.37100 27 ft 36 kts 122°
2026-05-07 20:09 25.24992 55.37330 28 ft 34 kts 121°
2026-05-07 20:09 25.24864 55.37555 28 ft 36 kts 122°
2026-05-07 20:09 25.24736 55.37793 30 ft 33 kts 122°
2026-05-07 20:10 25.24723 55.37987 36 ft 9 kts 32°
2026-05-07 20:10 25.24791 55.38003 37 ft 12 kts 352°
2026-05-07 20:10 25.24850 55.37938 37 ft 17 kts 302°
2026-05-07 20:10 25.24989 55.37693 35 ft 67 kts 302°
2026-05-07 20:11 25.25337 55.37070 28 ft 124 kts 301°
2026-05-07 20:11 25.25875 55.36098 16 ft 171 kts 301°
2026-05-07 20:11 25.26513 55.34924 98 ft 194 kts 300°
2026-05-07 20:11 25.27178 55.33695 565 ft 190 kts 300°
2026-05-07 20:12 25.27874 55.32392 769 ft 202 kts 299°
2026-05-07 20:12 25.28595 55.30970 732 ft 228 kts 297°
2026-05-07 20:12 25.29351 55.29365 915 ft 238 kts 300°
2026-05-07 20:12 25.30398 55.28152 1627 ft 224 kts 335°
2026-05-07 20:13 25.31902 55.27908 2022 ft 224 kts
2026-05-07 20:13 25.33445 55.28288 2099 ft 232 kts
2026-05-07 20:13 25.35078 55.28511 2214 ft 238 kts
2026-05-07 20:13 25.36717 55.28847 2441 ft 244 kts 11°
2026-05-07 20:14 25.38407 55.29225 2584 ft 253 kts
2026-05-07 20:14 25.40169 55.29500 2728 ft 262 kts 17°
2026-05-07 20:14 25.41834 55.30424 2848 ft 273 kts 26°
2026-05-07 20:14 25.43559 55.31387 3048 ft 283 kts 22°
2026-05-07 20:15 25.45383 55.32283 3350 ft 290 kts 21°
2026-05-07 20:15 25.47246 55.33167 3750 ft 293 kts 21°
2026-05-07 20:15 25.49231 55.34095 4202 ft 295 kts 21°
2026-05-07 20:15 25.51135 55.34981 4633 ft 298 kts 21°
2026-05-07 20:16 25.53049 55.35871 5023 ft 300 kts 21°
2026-05-07 20:16 25.54967 55.36763 5503 ft 299 kts 21°
2026-05-07 20:16 25.56889 55.37658 5934 ft 301 kts 22°
2026-05-07 20:16 25.58768 55.38681 6258 ft 304 kts 33°
2026-05-07 20:17 25.60486 55.40033 6715 ft 302 kts 37°
2026-05-07 20:17 25.62172 55.41432 7183 ft 302 kts 36°
2026-05-07 20:17 25.63867 55.42801 7566 ft 304 kts 35°
2026-05-07 20:17 25.65585 55.44159 7998 ft 304 kts 35°
2026-05-07 20:18 25.67307 55.45541 8445 ft 305 kts 39°
2026-05-07 20:18 25.68895 55.47099 8876 ft 305 kts 43°
2026-05-07 20:18 25.70418 55.48735 9294 ft 306 kts 44°
2026-05-07 20:18 25.71943 55.50387 9705 ft 308 kts 44°
2026-05-07 20:19 25.73477 55.52034 10083 ft 309 kts 44°
2026-05-07 20:19 25.75044 55.53700 10268 ft 320 kts 43°
2026-05-07 20:19 25.76697 55.55445 10378 ft 333 kts 43°
2026-05-07 20:19 25.78407 55.57244 10490 ft 343 kts 43°
2026-05-07 20:20 25.80160 55.59084 10563 ft 352 kts 43°
2026-05-07 20:20 25.81970 55.60982 10646 ft 362 kts 43°
2026-05-07 20:20 25.83829 55.62930 10875 ft 372 kts 43°
2026-05-07 20:20 25.85728 55.64910 11245 ft 377 kts 41°
2026-05-07 20:21 25.87817 55.66693 11628 ft 382 kts 34°
2026-05-07 20:21 25.89312 55.67748 11921 ft 385 kts 32°
2026-05-07 20:21 25.92408 55.69810 12623 ft 390 kts 32°
2026-05-07 20:21 25.93947 55.70842 12930 ft 389 kts 32°
2026-05-07 20:22 25.97018 55.72955 12991 ft 390 kts 33°
2026-05-07 20:22 25.98549 55.74032 13003 ft 393 kts 33°
2026-05-07 20:22 26.00813 55.75638 12999 ft 394 kts 33°
2026-05-07 20:22 26.03121 55.77280 12996 ft 393 kts 33°
2026-05-07 20:23 26.05492 55.78730 12984 ft 390 kts 21°
2026-05-07 20:23 26.08113 55.79529 12999 ft 390 kts
2026-05-07 20:23 26.10818 55.79702 12991 ft 393 kts 357°
2026-05-07 20:23 26.13565 55.79426 13278 ft 401 kts 356°
2026-05-07 20:24 26.16355 55.79124 13752 ft 401 kts 352°
2026-05-07 20:24 26.19032 55.78199 14056 ft 410 kts 333°
2026-05-07 20:24 26.21322 55.76383 14509 ft 413 kts 315°
2026-05-07 20:24 26.23163 55.73945 14953 ft 414 kts 308°
2026-05-07 20:25 26.24952 55.71401 15345 ft 418 kts 308°
2026-05-07 20:25 26.26761 55.68842 15815 ft 420 kts 308°
2026-05-07 20:25 26.28575 55.66299 16438 ft 419 kts 308°
2026-05-07 20:25 26.30402 55.63756 16888 ft 423 kts 308°
2026-05-07 20:26 26.32253 55.61194 17283 ft 428 kts 308°
2026-05-07 20:26 26.34127 55.58606 17741 ft 431 kts 308°
2026-05-07 20:26 26.35998 55.56023 18152 ft 434 kts 308°
2026-05-07 20:26 26.37898 55.53397 18627 ft 435 kts 308°
2026-05-07 20:27 26.39824 55.50735 19063 ft 436 kts 308°
2026-05-07 20:27 26.41706 55.48135 19515 ft 438 kts 308°
2026-05-07 20:27 26.43622 55.45485 19937 ft 439 kts 308°
2026-05-07 20:27 26.45545 55.42825 20360 ft 441 kts 308°
2026-05-07 20:28 26.47474 55.40153 20791 ft 443 kts 307°
2026-05-07 20:28 26.49408 55.37474 21205 ft 444 kts 307°
2026-05-07 20:28 26.51345 55.34789 21620 ft 446 kts 307°
2026-05-07 20:28 26.53300 55.32078 22008 ft 448 kts 307°
2026-05-07 20:29 26.55257 55.29365 22411 ft 450 kts 307°
2026-05-07 20:29 26.57219 55.26645 22789 ft 451 kts 307°
2026-05-07 20:29 26.59192 55.23908 23155 ft 454 kts 307°
2026-05-07 20:29 26.61181 55.21147 23483 ft 456 kts 307°
2026-05-07 20:30 26.63168 55.18386 23797 ft 457 kts 307°
2026-05-07 20:30 26.65161 55.15616 24123 ft 458 kts 307°
2026-05-07 20:30 26.67153 55.12843 24461 ft 459 kts 307°
2026-05-07 20:30 26.69158 55.10052 24779 ft 460 kts 307°
2026-05-07 20:31 26.71158 55.07266 25094 ft 460 kts 306°
2026-05-07 20:31 26.73161 55.04473 25440 ft 461 kts 306°
2026-05-07 20:31 26.75175 55.01663 25731 ft 462 kts 306°
2026-05-07 20:31 26.77045 54.99053 25983 ft 464 kts 306°
2026-05-07 20:32 26.79068 54.96228 26241 ft 467 kts 306°
2026-05-07 20:32 26.81096 54.93385 26551 ft 468 kts 306°
2026-05-07 20:32 26.83132 54.90523 26852 ft 469 kts 306°
2026-05-07 20:32 26.85157 54.87671 27171 ft 469 kts 305°
2026-05-07 20:33 26.87185 54.84810 27445 ft 470 kts 305°
2026-05-07 20:33 26.89229 54.81927 27712 ft 472 kts 305°
2026-05-07 20:33 26.91276 54.79036 27750 ft 475 kts 305°
2026-05-07 20:33 26.93328 54.76137 27810 ft 477 kts 305°
2026-05-07 20:34 26.95395 54.73217 27818 ft 481 kts 305°
2026-05-07 20:34 26.97486 54.70260 27826 ft 484 kts 305°
2026-05-07 20:34 26.99581 54.67297 27840 ft 487 kts 305°
2026-05-07 20:34 27.01659 54.64356 27843 ft 490 kts 305°
2026-05-07 20:35 27.03785 54.61345 27842 ft 492 kts 305°
2026-05-07 20:35 27.05909 54.58336 27865 ft 493 kts 304°
2026-05-07 20:35 27.08034 54.55323 27862 ft 493 kts 304°
2026-05-07 20:35 27.10159 54.52309 27855 ft 493 kts 304°
2026-05-07 20:36 27.12291 54.49282 27848 ft 493 kts 304°
2026-05-07 20:36 27.14413 54.46268 27851 ft 493 kts 304°
2026-05-07 20:36 27.16534 54.43251 27854 ft 492 kts 304°
2026-05-07 20:36 27.18659 54.40227 27853 ft 492 kts 304°
2026-05-07 20:37 27.20776 54.37213 27865 ft 491 kts 304°
2026-05-07 20:37 27.22888 54.34203 27866 ft 491 kts 304°
2026-05-07 20:37 27.25004 54.31186 27880 ft 490 kts 304°
2026-05-07 20:37 27.27110 54.28181 27887 ft 489 kts 304°
2026-05-07 20:38 27.29210 54.25181 27878 ft 489 kts 304°
2026-05-07 20:38 27.31307 54.22185 27867 ft 488 kts 304°
2026-05-07 20:38 27.33386 54.19212 27880 ft 488 kts 304°
2026-05-07 20:38 27.35510 54.16173 27887 ft 488 kts 304°
2026-05-07 20:39 27.37604 54.13174 27891 ft 488 kts 304°
2026-05-07 20:39 27.39706 54.10161 27886 ft 488 kts 304°
2026-05-07 20:39 27.41773 54.07197 27913 ft 488 kts 304°
2026-05-07 20:39 27.43866 54.04193 27897 ft 489 kts 304°
2026-05-07 20:40 27.45963 54.01181 27887 ft 488 kts 304°
2026-05-07 20:40 27.47933 53.98351 27906 ft 488 kts 304°
2026-05-07 20:40 27.50004 53.95375 27907 ft 488 kts 304°
2026-05-07 20:40 27.52161 53.92421 27898 ft 490 kts 309°
2026-05-07 20:41 27.54615 53.89743 27911 ft 493 kts 315°
2026-05-07 20:41 27.57302 53.87306 27922 ft 496 kts 320°
2026-05-07 20:41 27.60180 53.85154 27917 ft 499 kts 326°
2026-05-07 20:41 27.63201 53.83230 27929 ft 499 kts 327°
2026-05-07 20:42 27.66242 53.81340 27926 ft 500 kts 327°
2026-05-07 20:42 27.69298 53.79450 27918 ft 500 kts 327°
2026-05-07 20:42 27.72335 53.77559 27938 ft 499 kts 327°
2026-05-07 20:42 27.75368 53.75656 27934 ft 499 kts 326°
2026-05-07 20:43 27.78396 53.73742 27956 ft 499 kts 326°
2026-05-07 20:43 27.81435 53.71811 27946 ft 500 kts 326°
2026-05-07 20:43 27.84464 53.69882 27936 ft 501 kts 326°
2026-05-07 20:43 27.87496 53.67948 27954 ft 501 kts 326°
2026-05-07 20:44 27.90546 53.66001 27953 ft 502 kts 326°
2026-05-07 20:44 27.93582 53.64063 27958 ft 502 kts 326°
2026-05-07 20:44 27.96621 53.62125 27960 ft 502 kts 326°
2026-05-07 20:44 27.99658 53.60185 27981 ft 502 kts 326°
2026-05-07 20:45 28.02675 53.58255 27992 ft 503 kts 326°
2026-05-07 20:45 28.05719 53.56307 27995 ft 504 kts 326°
2026-05-07 20:45 28.08768 53.54356 27984 ft 504 kts 326°
2026-05-07 20:45 28.11833 53.52393 27996 ft 505 kts 326°
2026-05-07 20:46 28.14894 53.50431 28010 ft 505 kts 326°
2026-05-07 20:46 28.21008 53.46511 28016 ft 505 kts 326°
2026-05-07 20:47 28.27123 53.42584 28002 ft 504 kts 326°
2026-05-07 20:47 28.33202 53.38674 28004 ft 502 kts 326°
2026-05-07 20:48 28.39284 53.34756 27997 ft 501 kts 326°
2026-05-07 20:48 28.45341 53.30849 28016 ft 501 kts 326°
2026-05-07 20:49 28.51409 53.26930 28038 ft 501 kts 326°
2026-05-07 20:49 28.57469 53.22989 28024 ft 501 kts 326°
2026-05-07 20:50 28.63502 53.19018 28056 ft 501 kts 325°
2026-05-07 20:50 28.69542 53.15038 28059 ft 501 kts 325°
2026-05-07 20:51 28.75565 53.11071 28075 ft 500 kts 325°
2026-05-07 20:51 28.81590 53.07098 28110 ft 499 kts 325°
2026-05-07 20:52 28.87591 53.03137 28077 ft 498 kts 325°
2026-05-07 20:52 28.93389 52.99301 28098 ft 497 kts 325°
2026-05-07 20:53 28.99363 52.95344 28126 ft 496 kts 324°
2026-05-07 20:53 29.05323 52.91394 28116 ft 496 kts 324°
2026-05-07 20:54 29.11258 52.87452 28138 ft 497 kts 324°
2026-05-07 20:54 29.17269 52.83455 28152 ft 497 kts 324°
2026-05-07 20:55 29.23217 52.79492 28143 ft 498 kts 324°
2026-05-07 20:55 29.29200 52.75502 28137 ft 498 kts 324°
2026-05-07 20:56 29.35201 52.71493 28156 ft 499 kts 324°
2026-05-07 20:56 29.41199 52.67482 28145 ft 500 kts 324°
2026-05-07 20:57 29.47211 52.63455 28148 ft 500 kts 324°
2026-05-07 20:57 29.53005 52.59153 28150 ft 493 kts 316°
2026-05-07 20:58 29.57994 52.53830 28160 ft 486 kts 307°
2026-05-07 20:58 29.62418 52.47949 28171 ft 486 kts 306°
2026-05-07 20:59 29.66838 52.42069 28184 ft 487 kts 306°
2026-05-07 20:59 29.71310 52.36166 28166 ft 490 kts 306°
2026-05-07 21:00 29.75793 52.30274 28174 ft 490 kts 306°
2026-05-07 21:00 29.80279 52.24355 28173 ft 490 kts 306°
2026-05-07 21:01 29.84786 52.18486 28176 ft 491 kts 310°
2026-05-07 21:01 29.90031 52.13288 28180 ft 501 kts 320°
2026-05-07 21:02 29.95910 52.08990 28195 ft 501 kts 323°
2026-05-07 21:02 29.98900 52.06877 28366 ft 503 kts 323°
2026-05-07 21:02 30.01827 52.04802 28610 ft 504 kts 323°
2026-05-07 21:02 30.04849 52.02644 28862 ft 505 kts 323°
2026-05-07 21:03 30.07787 52.00532 29100 ft 505 kts 323°
2026-05-07 21:03 30.10466 51.98599 29382 ft 503 kts 323°
2026-05-07 21:03 30.13423 51.96461 29702 ft 501 kts 323°
2026-05-07 21:03 30.16372 51.94326 30002 ft 500 kts 322°
2026-05-07 21:04 30.19313 51.92192 30125 ft 502 kts 322°
2026-05-07 21:04 30.25038 51.88027 30167 ft 501 kts 322°
2026-05-07 21:05 30.30968 51.83717 30174 ft 498 kts 322°
2026-05-07 21:05 30.36814 51.79464 30172 ft 496 kts 322°
2026-05-07 21:06 30.42632 51.75220 30201 ft 496 kts 322°
2026-05-07 21:06 30.48482 51.70950 30193 ft 497 kts 322°
2026-05-07 21:07 30.54329 51.66676 30208 ft 497 kts 322°
2026-05-07 21:07 30.60159 51.62407 30212 ft 497 kts 322°
2026-05-07 21:08 30.66007 51.58119 30197 ft 498 kts 322°
2026-05-07 21:08 30.70868 51.54539 30288 ft 497 kts 322°
2026-05-07 21:09 30.76656 51.50119 30308 ft 497 kts 321°
2026-05-07 21:09 30.82408 51.45659 30288 ft 498 kts 321°
2026-05-07 21:10 30.88192 51.41184 30267 ft 499 kts 321°
2026-05-07 21:10 30.93985 51.36712 30255 ft 500 kts 321°
2026-05-07 21:11 30.99779 51.32239 30262 ft 500 kts 321°
2026-05-07 21:11 31.08451 51.25531 30263 ft 500 kts 321°
2026-05-07 21:12 31.14251 51.21037 30256 ft 499 kts 321°
2026-05-07 21:12 31.20025 51.16555 30266 ft 499 kts 321°
2026-05-07 21:13 31.25793 51.12079 30314 ft 495 kts 321°
2026-05-07 21:13 31.31533 51.07598 30284 ft 498 kts 321°
2026-05-07 21:14 31.37298 51.03096 30277 ft 499 kts 321°
2026-05-07 21:14 31.42875 50.98746 30277 ft 500 kts 321°
2026-05-07 21:15 31.48670 50.94217 30289 ft 502 kts 321°
2026-05-07 21:15 31.54488 50.89660 30276 ft 503 kts 321°
2026-05-07 21:16 31.60305 50.85095 30286 ft 504 kts 321°
2026-05-07 21:16 31.66153 50.80499 30274 ft 507 kts 321°
2026-05-07 21:17 31.72008 50.75894 30247 ft 508 kts 321°
2026-05-07 21:17 31.77884 50.71262 30223 ft 508 kts 321°
2026-05-07 21:18 31.83739 50.66640 30259 ft 507 kts 321°
2026-05-07 21:18 31.89612 50.61996 30250 ft 511 kts 321°
2026-05-07 21:19 31.95524 50.57315 30231 ft 512 kts 321°
2026-05-07 21:19 32.01410 50.52647 30238 ft 512 kts 321°
2026-05-07 21:20 32.07272 50.47994 30240 ft 510 kts 321°
2026-05-07 21:20 32.13186 50.43289 30228 ft 509 kts 321°
2026-05-07 21:21 32.19018 50.38641 30235 ft 509 kts 320°
2026-05-07 21:21 32.24874 50.33967 30244 ft 509 kts 320°
2026-05-07 21:22 32.30756 50.29265 30228 ft 511 kts 321°
2026-05-07 21:22 32.36637 50.24555 30243 ft 513 kts 321°
2026-05-07 21:23 32.42556 50.19809 30228 ft 514 kts 321°
2026-05-07 21:23 32.48486 50.15047 30238 ft 515 kts 320°
2026-05-07 21:24 32.54418 50.10275 30232 ft 518 kts 320°
2026-05-07 21:24 32.60397 50.05455 30214 ft 521 kts 320°
2026-05-07 21:25 32.66398 50.00608 30210 ft 524 kts 320°
2026-05-07 21:25 32.72234 49.95889 30240 ft 526 kts 319°
2026-05-07 21:26 32.78290 49.90983 30158 ft 528 kts 319°
2026-05-07 21:26 32.84341 49.86090 30223 ft 525 kts 319°
2026-05-07 21:27 32.90376 49.81178 30212 ft 525 kts 319°
2026-05-07 21:27 32.96400 49.76271 30210 ft 526 kts 319°
2026-05-07 21:28 33.02387 49.71394 30208 ft 525 kts 317°
2026-05-07 21:28 33.08429 49.66461 30171 ft 522 kts 318°
2026-05-07 21:29 33.14403 49.61574 30215 ft 519 kts 317°
2026-05-07 21:29 33.20345 49.56700 30189 ft 519 kts 317°
2026-05-07 21:30 33.26284 49.51783 30214 ft 518 kts 317°
2026-05-07 21:30 33.32169 49.46875 30172 ft 520 kts 316°
2026-05-07 21:31 33.38088 49.41929 30170 ft 520 kts 316°
2026-05-07 21:31 33.44018 49.36974 30160 ft 519 kts 316°
2026-05-07 21:32 33.49964 49.32000 30142 ft 518 kts 316°
2026-05-07 21:32 33.55825 49.27089 30181 ft 516 kts 316°
2026-05-07 21:33 33.61727 49.22134 30165 ft 514 kts 316°
2026-05-07 21:33 33.67525 49.17256 30171 ft 511 kts 316°
2026-05-07 21:34 33.73333 49.12364 30145 ft 510 kts 316°
2026-05-07 21:34 33.79136 49.07465 30194 ft 509 kts 315°
2026-05-07 21:35 33.84922 49.02570 30137 ft 509 kts 315°
2026-05-07 21:35 33.90493 48.97854 30142 ft 507 kts 315°
2026-05-07 21:36 33.96256 48.92967 30169 ft 506 kts 315°
2026-05-07 21:36 34.01954 48.88122 30158 ft 506 kts 315°
2026-05-07 21:37 34.07717 48.83217 30145 ft 506 kts 315°
2026-05-07 21:37 34.13465 48.78319 30151 ft 507 kts 315°
2026-05-07 21:38 34.19232 48.73394 30143 ft 508 kts 315°
2026-05-07 21:38 34.24992 48.68463 30133 ft 509 kts 315°
2026-05-07 21:39 34.30775 48.63508 30152 ft 509 kts 315°
2026-05-07 21:39 34.36564 48.58536 30136 ft 510 kts 315°
2026-05-07 21:40 34.42340 48.53573 30131 ft 509 kts 315°
2026-05-07 21:40 34.48119 48.48598 30132 ft 508 kts 315°
2026-05-07 21:41 34.53868 48.43639 30168 ft 507 kts 314°
2026-05-07 21:41 34.59589 48.38690 30127 ft 508 kts 314°
2026-05-07 21:42 34.65369 48.33685 30126 ft 507 kts 314°
2026-05-07 21:42 34.71077 48.28734 30140 ft 507 kts 315°
2026-05-07 21:43 34.76808 48.23755 30140 ft 507 kts 315°
2026-05-07 21:43 34.82548 48.18760 30132 ft 507 kts 314°
2026-05-07 21:44 34.88258 48.13782 30110 ft 505 kts 315°
2026-05-07 21:44 34.93957 48.08806 30117 ft 502 kts 315°
2026-05-07 21:45 34.99621 48.03849 30104 ft 501 kts 314°
2026-05-07 21:45 35.05065 47.99074 30119 ft 500 kts 314°
2026-05-07 21:46 35.10725 47.94121 30121 ft 503 kts 316°
2026-05-07 21:46 35.16636 47.89449 30107 ft 506 kts 319°
2026-05-07 21:47 35.22606 47.84896 30098 ft 506 kts 319°
2026-05-07 21:47 35.28555 47.80330 30097 ft 504 kts 319°
2026-05-07 21:48 35.34471 47.75747 30100 ft 502 kts 319°
2026-05-07 21:48 35.40348 47.71172 30132 ft 500 kts 319°
2026-05-07 21:49 35.46225 47.66585 30104 ft 500 kts 319°
2026-05-07 21:49 35.52098 47.61998 30085 ft 500 kts 319°
2026-05-07 21:50 35.57952 47.57418 30107 ft 500 kts 319°
2026-05-07 21:50 35.63820 47.52820 30098 ft 500 kts 319°
2026-05-07 21:51 35.69674 47.48225 30099 ft 500 kts 320°
2026-05-07 21:51 35.75539 47.43614 30105 ft 500 kts 320°
2026-05-07 21:52 35.81388 47.39006 30127 ft 499 kts 320°
2026-05-07 21:52 35.87243 47.34387 30106 ft 499 kts 321°
2026-05-07 21:53 35.93083 47.29770 30114 ft 498 kts 321°
2026-05-07 21:53 35.97923 47.25937 30117 ft 498 kts 321°
2026-05-07 21:54 36.03725 47.21336 30122 ft 497 kts 321°
2026-05-07 21:54 36.09546 47.16710 30140 ft 497 kts 321°
2026-05-07 21:55 36.15361 47.12080 30126 ft 496 kts 321°
2026-05-07 21:55 36.21150 47.07465 30139 ft 495 kts 321°
2026-05-07 21:56 36.26948 47.02837 30141 ft 495 kts 321°
2026-05-07 21:56 36.32546 46.98365 30139 ft 495 kts 321°
2026-05-07 21:57 36.38338 46.93724 30136 ft 495 kts 321°
2026-05-07 21:57 36.44120 46.89086 30150 ft 495 kts 321°
2026-05-07 21:58 36.49915 46.84427 30160 ft 496 kts 321°
2026-05-07 21:58 36.55717 46.79755 30154 ft 496 kts 321°
2026-05-07 21:59 36.61509 46.75082 30153 ft 497 kts 321°
2026-05-07 21:59 36.67327 46.70377 30146 ft 499 kts 320°
2026-05-07 22:00 36.73139 46.65672 30144 ft 499 kts 320°
2026-05-07 22:00 36.78971 46.60942 30157 ft 500 kts 320°
2026-05-07 22:01 36.84802 46.56203 30153 ft 501 kts 320°
2026-05-07 22:01 36.90649 46.51442 30177 ft 501 kts 320°
2026-05-07 22:02 36.96492 46.46675 30142 ft 502 kts 320°
2026-05-07 22:02 37.02315 46.41920 30147 ft 501 kts 320°
2026-05-07 22:03 37.08141 46.37149 30127 ft 501 kts 320°
2026-05-07 22:03 37.13973 46.32364 30124 ft 501 kts 320°
2026-05-07 22:04 37.19798 46.27576 30132 ft 501 kts 319°
2026-05-07 22:04 37.25621 46.22781 30123 ft 501 kts 319°
2026-05-07 22:05 37.31451 46.17972 30107 ft 501 kts 319°
2026-05-07 22:05 37.37280 46.13154 30083 ft 501 kts 319°
2026-05-07 22:06 37.43116 46.08321 30073 ft 502 kts 319°
2026-05-07 22:06 37.48953 46.03478 30085 ft 503 kts 319°
2026-05-07 22:07 37.54568 45.98810 30092 ft 503 kts 319°
2026-05-07 22:07 37.60411 45.93952 30104 ft 504 kts 319°
2026-05-07 22:08 37.66677 45.89797 30094 ft 515 kts 329°
2026-05-07 22:08 37.73300 45.86338 30079 ft 516 kts 330°
2026-05-07 22:09 37.79937 45.82882 30092 ft 515 kts 330°
2026-05-07 22:09 37.86536 45.79373 30093 ft 514 kts 329°
2026-05-07 22:10 37.93081 45.75855 30122 ft 514 kts 329°
2026-05-07 22:10 37.99702 45.72288 30095 ft 515 kts 329°
2026-05-07 22:11 38.06238 45.68765 30093 ft 515 kts 329°
2026-05-07 22:11 38.12879 45.65180 30105 ft 515 kts 329°
2026-05-07 22:12 38.19476 45.61612 30101 ft 516 kts 329°
2026-05-07 22:12 38.26088 45.58027 30115 ft 517 kts 329°
2026-05-07 22:13 38.32660 45.54459 30071 ft 517 kts 329°
2026-05-07 22:13 38.39185 45.50644 30090 ft 501 kts 318°
2026-05-07 22:14 38.41859 45.47946 30119 ft 485 kts 306°
2026-05-07 22:14 38.44014 45.44766 30117 ft 475 kts 296°
2026-05-07 22:14 38.47013 45.37396 30109 ft 467 kts 286°
2026-05-07 22:15 38.49788 45.29922 30090 ft 470 kts 288°
2026-05-07 22:15 38.52677 45.22422 30099 ft 471 kts 288°
2026-05-07 22:16 38.55564 45.14919 30103 ft 470 kts 288°
2026-05-07 22:16 38.58424 45.07429 30107 ft 469 kts 287°
2026-05-07 22:17 38.61257 44.99972 30111 ft 468 kts 287°
2026-05-07 22:17 38.63915 44.92953 30103 ft 467 kts 287°
2026-05-07 22:18 38.68164 44.81706 30131 ft 466 kts 287°
2026-05-07 22:19 38.70960 44.74281 30132 ft 467 kts 287°
2026-05-07 22:19 38.73780 44.66771 30141 ft 469 kts 287°
2026-05-07 22:20 38.76606 44.59232 30149 ft 469 kts 287°
2026-05-07 22:20 38.79424 44.51696 30148 ft 471 kts 288°
2026-05-07 22:21 38.82252 44.44111 30159 ft 471 kts 287°
2026-05-07 22:21 38.85071 44.36535 30158 ft 471 kts 287°
2026-05-07 22:22 38.87883 44.28954 30187 ft 470 kts 288°
2026-05-07 22:22 38.90694 44.21364 30175 ft 470 kts 288°
2026-05-07 22:23 38.93483 44.13783 30183 ft 469 kts 288°
2026-05-07 22:23 38.96251 44.06214 30180 ft 468 kts 287°
2026-05-07 22:24 38.98895 43.98974 30188 ft 468 kts 287°
2026-05-07 22:24 39.01643 43.91428 30184 ft 468 kts 287°
2026-05-07 22:25 39.04392 43.83862 30181 ft 467 kts 287°
2026-05-07 22:25 39.07135 43.76292 30204 ft 468 kts 288°
2026-05-07 22:26 39.09887 43.68676 30181 ft 470 kts 288°
2026-05-07 22:26 39.12644 43.61034 30190 ft 470 kts 288°
2026-05-07 22:27 39.15397 43.53379 30209 ft 472 kts 289°
2026-05-07 22:27 39.18156 43.45684 30195 ft 474 kts 289°
2026-05-07 22:28 39.20918 43.37966 30197 ft 475 kts 289°
2026-05-07 22:28 39.23678 43.30231 30218 ft 475 kts 289°
2026-05-07 22:29 39.26431 43.22494 30184 ft 476 kts 290°
2026-05-07 22:29 39.29194 43.14711 30211 ft 477 kts 290°
2026-05-07 22:30 39.31950 43.06923 30193 ft 477 kts 290°
2026-05-07 22:30 39.34536 42.99605 30203 ft 477 kts 291°
2026-05-07 22:31 39.37265 42.91854 30215 ft 478 kts 291°
2026-05-07 22:31 39.40015 42.84024 30201 ft 478 kts 291°
2026-05-07 22:32 39.42758 42.76192 30225 ft 478 kts 292°
2026-05-07 22:32 39.45480 42.68400 30204 ft 478 kts 291°
2026-05-07 22:33 39.48235 42.60500 30205 ft 478 kts 292°
2026-05-07 22:33 39.50941 42.52709 30218 ft 477 kts 292°
2026-05-07 22:34 39.53654 42.44875 30212 ft 476 kts 292°
2026-05-07 22:34 39.56377 42.36997 30216 ft 475 kts 292°
2026-05-07 22:35 39.59047 42.29250 30216 ft 474 kts 292°
2026-05-07 22:35 39.61729 42.21446 30222 ft 473 kts 292°
2026-05-07 22:36 39.64399 42.13658 30222 ft 472 kts 292°
2026-05-07 22:36 39.67062 42.05865 30226 ft 472 kts 292°
2026-05-07 22:37 39.69187 41.99633 30228 ft 472 kts 293°
2026-05-07 22:37 39.71831 41.91858 30226 ft 473 kts 293°
2026-05-07 22:38 39.74913 41.82771 30226 ft 474 kts 292°
2026-05-07 22:38 39.77118 41.76252 30224 ft 474 kts 292°
2026-05-07 22:39 39.79766 41.68401 30227 ft 474 kts 294°
2026-05-07 22:39 39.81090 41.64471 30354 ft 475 kts 294°
2026-05-07 22:39 39.82410 41.60545 30646 ft 473 kts 294°
2026-05-07 22:39 39.83721 41.56639 30971 ft 471 kts 293°
2026-05-07 22:40 39.85018 41.52772 31266 ft 470 kts 293°
2026-05-07 22:40 39.86319 41.48886 31528 ft 470 kts 293°
2026-05-07 22:40 39.87624 41.44981 31753 ft 470 kts 293°
2026-05-07 22:40 39.88925 41.41084 31965 ft 471 kts 293°
2026-05-07 22:41 39.90230 41.37171 32190 ft 470 kts 293°
2026-05-07 22:41 39.91523 41.33286 32416 ft 470 kts 293°
2026-05-07 22:41 39.92816 41.29397 32612 ft 471 kts 292°
2026-05-07 22:41 39.94120 41.25471 32835 ft 471 kts 292°
2026-05-07 22:42 39.95414 41.21570 33044 ft 470 kts 293°
2026-05-07 22:42 39.96674 41.17695 33318 ft 468 kts 292°
2026-05-07 22:42 39.97896 41.13784 33530 ft 468 kts 291°
2026-05-07 22:42 39.99097 41.09862 33683 ft 469 kts 291°
2026-05-07 22:43 40.00298 41.05917 33796 ft 470 kts 291°
2026-05-07 22:43 40.01499 41.01970 33898 ft 472 kts 291°
2026-05-07 22:43 40.02616 40.98307 33991 ft 473 kts 291°
2026-05-07 22:43 40.03839 40.94304 34094 ft 475 kts 291°
2026-05-07 22:44 40.05062 40.90308 34181 ft 476 kts 291°
2026-05-07 22:44 40.07523 40.82262 34357 ft 478 kts 291°
2026-05-07 22:45 40.09989 40.74183 34507 ft 480 kts 291°
2026-05-07 22:45 40.12456 40.66069 34666 ft 481 kts 291°
2026-05-07 22:45 40.13684 40.62019 34831 ft 479 kts 291°
2026-05-07 22:46 40.14913 40.57962 34864 ft 481 kts 291°
2026-05-07 22:46 40.17378 40.49803 34961 ft 483 kts 291°
2026-05-07 22:47 40.19839 40.41636 35075 ft 484 kts 291°
2026-05-07 22:47 40.22303 40.33432 35168 ft 485 kts 291°
2026-05-07 22:48 40.24768 40.25199 35269 ft 486 kts 291°
2026-05-07 22:48 40.27228 40.16957 35344 ft 487 kts 291°
2026-05-07 22:49 40.29689 40.08688 35437 ft 487 kts 291°
2026-05-07 22:49 40.32147 40.00400 35531 ft 488 kts 291°
2026-05-07 22:50 40.34505 39.92427 35571 ft 489 kts 291°
2026-05-07 22:50 40.36953 39.84122 35647 ft 489 kts 291°
2026-05-07 22:51 40.39407 39.75773 35692 ft 490 kts 291°
2026-05-07 22:51 40.41852 39.67431 35747 ft 490 kts 291°
2026-05-07 22:52 40.44290 39.59060 35795 ft 491 kts 291°
2026-05-07 22:52 40.46715 39.50695 35850 ft 491 kts 291°
2026-05-07 22:53 40.49140 39.42304 35885 ft 492 kts 291°
2026-05-07 22:53 40.51564 39.33893 35926 ft 492 kts 291°
2026-05-07 22:54 40.53982 39.25475 35952 ft 492 kts 291°
2026-05-07 22:54 40.56397 39.17041 36010 ft 492 kts 291°
2026-05-07 22:55 40.58801 39.08615 36075 ft 490 kts 291°
2026-05-07 22:55 40.61169 39.00289 36164 ft 487 kts 291°
2026-05-07 22:56 40.63460 38.92213 36186 ft 486 kts 291°
2026-05-07 22:56 40.65803 38.83873 36186 ft 485 kts 291°
2026-05-07 22:57 40.68112 38.75537 36210 ft 485 kts 291°
2026-05-07 22:57 40.70405 38.67227 36188 ft 485 kts 291°
2026-05-07 22:58 40.72717 38.58834 36188 ft 484 kts 291°
2026-05-07 22:58 40.75010 38.50489 36205 ft 484 kts 291°
2026-05-07 22:59 40.77294 38.42150 36186 ft 483 kts 291°
2026-05-07 22:59 40.79573 38.33800 36198 ft 483 kts 291°
2026-05-07 23:00 40.81836 38.25485 36183 ft 483 kts 291°
2026-05-07 23:00 40.84102 38.17131 36170 ft 482 kts 291°
2026-05-07 23:01 40.86338 38.08852 36167 ft 482 kts 291°
2026-05-07 23:01 40.88584 38.00513 36192 ft 481 kts 291°
2026-05-07 23:02 40.90728 37.92528 36188 ft 482 kts 291°
2026-05-07 23:02 40.92973 37.84141 36190 ft 481 kts 291°
2026-05-07 23:03 40.95204 37.75777 36183 ft 481 kts 291°
2026-05-07 23:03 40.97408 37.67483 36183 ft 481 kts 291°
2026-05-07 23:04 40.99619 37.59136 36188 ft 481 kts 291°
2026-05-07 23:04 41.01821 37.50798 36180 ft 481 kts 291°
2026-05-07 23:05 41.04022 37.42431 36189 ft 481 kts 291°
2026-05-07 23:05 41.06217 37.34060 36189 ft 481 kts 291°
2026-05-07 23:06 41.08420 37.25626 36191 ft 481 kts 290°
2026-05-07 23:06 41.10590 37.17292 36176 ft 481 kts 291°
2026-05-07 23:07 41.12763 37.08921 36177 ft 481 kts 291°
2026-05-07 23:07 41.14932 37.00531 36181 ft 480 kts 290°
2026-05-07 23:08 41.17008 36.92474 36184 ft 480 kts 290°
2026-05-07 23:08 41.19163 36.84085 36178 ft 480 kts 290°
2026-05-07 23:09 41.21312 36.75691 36186 ft 479 kts 290°
2026-05-07 23:09 41.23448 36.67316 36185 ft 479 kts 290°
2026-05-07 23:10 41.25582 36.58923 36180 ft 479 kts 290°
2026-05-07 23:10 41.27708 36.50549 36178 ft 479 kts 290°
2026-05-07 23:11 41.29848 36.42163 36174 ft 478 kts 290°
2026-05-07 23:11 41.31980 36.33792 36171 ft 478 kts 290°
2026-05-07 23:12 41.34106 36.25404 36166 ft 478 kts 290°
2026-05-07 23:12 41.36224 36.17012 36171 ft 478 kts 290°
2026-05-07 23:13 41.38336 36.08615 36168 ft 478 kts 290°
2026-05-07 23:13 41.40441 36.00216 36171 ft 479 kts 290°
2026-05-07 23:14 41.42454 35.92152 36159 ft 478 kts 290°
2026-05-07 23:14 41.44547 35.83741 36166 ft 478 kts 290°
2026-05-07 23:15 41.46632 35.75336 36156 ft 478 kts 290°
2026-05-07 23:15 41.48713 35.66912 36156 ft 478 kts 290°
2026-05-07 23:16 41.50785 35.58499 36154 ft 478 kts 290°
2026-05-07 23:16 41.52856 35.50058 36152 ft 478 kts 290°
2026-05-07 23:17 41.54915 35.41632 36153 ft 478 kts 290°
2026-05-07 23:17 41.56967 35.33207 36162 ft 478 kts 290°
2026-05-07 23:18 41.59020 35.24744 36152 ft 477 kts 290°
2026-05-07 23:18 41.61060 35.16307 36150 ft 477 kts 290°
2026-05-07 23:19 41.63091 35.07874 36144 ft 476 kts 290°
2026-05-07 23:19 41.65058 34.99683 36152 ft 476 kts 290°
2026-05-07 23:20 41.66698 34.92827 36161 ft 475 kts 290°
2026-05-07 23:20 41.69045 34.82983 36162 ft 475 kts 290°
2026-05-07 23:21 41.70706 34.75983 36152 ft 475 kts 290°
2026-05-07 23:21 41.72696 34.67576 36160 ft 475 kts 290°
2026-05-07 23:22 41.74682 34.59159 36164 ft 474 kts 290°
2026-05-07 23:22 41.76656 34.50752 36169 ft 474 kts 290°
2026-05-07 23:23 41.78625 34.42327 36167 ft 473 kts 290°
2026-05-07 23:23 41.80587 34.33908 36167 ft 473 kts 290°
2026-05-07 23:24 41.82543 34.25479 36154 ft 473 kts 290°
2026-05-07 23:24 41.84492 34.17047 36159 ft 473 kts 290°
2026-05-07 23:25 41.86435 34.08615 36149 ft 473 kts 290°
2026-05-07 23:25 41.88371 34.00178 36165 ft 472 kts 290°
2026-05-07 23:26 41.90204 33.92159 36174 ft 472 kts 290°
2026-05-07 23:26 41.92126 33.83722 36152 ft 472 kts 290°
2026-05-07 23:27 41.94991 33.71089 36156 ft 472 kts 290°
2026-05-07 23:27 41.96741 33.62585 36156 ft 472 kts 287°
2026-05-07 23:28 41.98337 33.54027 36163 ft 472 kts 287°
2026-05-07 23:28 41.99949 33.45471 36147 ft 472 kts 287°
2026-05-07 23:29 42.01564 33.37012 36140 ft 472 kts 287°
2026-05-07 23:29 42.03194 33.28465 36138 ft 471 kts 287°
2026-05-07 23:30 42.04824 33.19871 36141 ft 471 kts 287°
2026-05-07 23:30 42.06423 33.11404 36133 ft 470 kts 287°
2026-05-07 23:31 42.08067 33.02900 36136 ft 469 kts 288°
2026-05-07 23:31 42.09756 32.94757 36135 ft 469 kts 288°
2026-05-07 23:32 42.11506 32.86313 36129 ft 469 kts 288°
2026-05-07 23:32 42.13237 32.77832 36123 ft 468 kts 288°
2026-05-07 23:33 42.14950 32.69374 36128 ft 468 kts 288°
2026-05-07 23:33 42.16673 32.60843 36127 ft 468 kts 288°
2026-05-07 23:34 42.18369 32.52391 36130 ft 468 kts 288°
2026-05-07 23:34 42.20051 32.43966 36134 ft 468 kts 288°
2026-05-07 23:35 42.21738 32.35482 36131 ft 468 kts 288°
2026-05-07 23:35 42.23427 32.26959 36131 ft 468 kts 288°
2026-05-07 23:36 42.25104 32.18457 36122 ft 468 kts 288°
2026-05-07 23:36 42.26766 32.10036 36130 ft 468 kts 288°
2026-05-07 23:37 42.28439 32.01475 36128 ft 468 kts 288°
2026-05-07 23:37 42.30008 31.93393 36130 ft 468 kts 288°
2026-05-07 23:38 42.31653 31.84894 36129 ft 468 kts 287°
2026-05-07 23:38 42.33302 31.76345 36134 ft 468 kts 287°
2026-05-07 23:39 42.34926 31.67884 36118 ft 467 kts 287°
2026-05-07 23:39 42.36550 31.59389 36128 ft 467 kts 287°
2026-05-07 23:40 42.38170 31.50874 36123 ft 467 kts 287°
2026-05-07 23:40 42.39779 31.42381 36131 ft 467 kts 287°
2026-05-07 23:41 42.41386 31.33861 36131 ft 467 kts 287°
2026-05-07 23:41 42.42985 31.25348 36131 ft 466 kts 287°
2026-05-07 23:42 42.44575 31.16849 36123 ft 466 kts 286°
2026-05-07 23:42 42.46160 31.08336 36131 ft 466 kts 286°
2026-05-07 23:43 42.47728 30.99896 36128 ft 466 kts 286°
2026-05-07 23:43 42.49259 30.91630 36128 ft 466 kts 286°
2026-05-07 23:44 42.50831 30.83103 36123 ft 466 kts 286°
2026-05-07 23:44 42.52383 30.74645 36129 ft 466 kts 286°
2026-05-07 23:45 42.53937 30.66137 36133 ft 466 kts 285°
2026-05-07 23:45 42.55489 30.57598 36127 ft 466 kts 285°
2026-05-07 23:46 42.57029 30.49086 36121 ft 465 kts 285°
2026-05-07 23:46 42.58567 30.40551 36125 ft 465 kts 285°
2026-05-07 23:47 42.60149 30.32033 36119 ft 464 kts 290°
2026-05-07 23:47 42.62924 30.24178 36133 ft 462 kts 303°
2026-05-07 23:48 42.66874 30.17344 36134 ft 461 kts 311°
2026-05-07 23:48 42.71181 30.10886 36119 ft 461 kts 312°
2026-05-07 23:49 42.75494 30.04392 36119 ft 462 kts 311°
2026-05-07 23:49 42.79583 29.98157 36119 ft 462 kts 311°
2026-05-07 23:50 42.83851 29.91600 36118 ft 462 kts 311°
2026-05-07 23:50 42.88114 29.85030 36118 ft 463 kts 311°
2026-05-07 23:51 42.92375 29.78448 36129 ft 463 kts 311°
2026-05-07 23:51 42.96637 29.71854 36113 ft 464 kts 310°
2026-05-07 23:52 43.00888 29.65262 36114 ft 464 kts 310°
2026-05-07 23:52 43.05146 29.58642 36115 ft 465 kts 310°
2026-05-07 23:53 43.09419 29.51985 36117 ft 465 kts 310°
2026-05-07 23:53 43.13674 29.45341 36115 ft 465 kts 310°
2026-05-07 23:54 43.17945 29.38658 36114 ft 466 kts 310°
2026-05-07 23:54 43.22202 29.31979 36115 ft 466 kts 310°
2026-05-07 23:55 43.26468 29.25272 36105 ft 466 kts 310°
2026-05-07 23:55 43.30729 29.18556 36120 ft 467 kts 310°
2026-05-07 23:56 43.34991 29.11823 36112 ft 467 kts 310°
2026-05-07 23:56 43.39252 29.05077 36111 ft 467 kts 310°
2026-05-07 23:57 43.43309 28.98639 36109 ft 468 kts 310°
2026-05-07 23:57 43.47572 28.91856 36114 ft 468 kts 310°
2026-05-07 23:58 43.51813 28.85095 36114 ft 468 kts 310°
2026-05-07 23:58 43.56079 28.78278 36100 ft 469 kts 309°
2026-05-07 23:59 43.60326 28.71473 36112 ft 469 kts 309°
2026-05-07 23:59 43.64580 28.64642 36110 ft 469 kts 309°
2026-05-08 00:00 43.68832 28.57796 36118 ft 470 kts 309°
2026-05-08 00:00 43.73085 28.50937 36103 ft 470 kts 309°
2026-05-08 00:01 43.77440 28.44178 36105 ft 471 kts 311°
2026-05-08 00:01 43.81932 28.37559 36109 ft 471 kts 311°
2026-05-08 00:02 43.85691 28.32014 36106 ft 472 kts 311°
2026-05-08 00:02 43.90163 28.25347 36100 ft 472 kts 311°
2026-05-08 00:03 43.94595 28.18688 36104 ft 473 kts 311°
2026-05-08 00:03 43.99048 28.11971 36106 ft 473 kts 310°
2026-05-08 00:04 44.03516 28.05217 36103 ft 474 kts 310°
2026-05-08 00:04 44.07802 27.98726 36093 ft 474 kts 310°
2026-05-08 00:05 44.12254 27.91968 36098 ft 475 kts 310°
2026-05-08 00:05 44.16719 27.85174 36081 ft 475 kts 310°
2026-05-08 00:06 44.21180 27.78372 36076 ft 476 kts 310°
2026-05-08 00:06 44.25638 27.71554 36076 ft 476 kts 310°
2026-05-08 00:07 44.30131 27.64668 36078 ft 477 kts 310°
2026-05-08 00:07 44.34569 27.57850 36070 ft 477 kts 310°
2026-05-08 00:08 44.39054 27.50942 36077 ft 478 kts 310°
2026-05-08 00:08 44.43520 27.44047 36071 ft 478 kts 310°
2026-05-08 00:09 44.47979 27.37145 36066 ft 478 kts 310°
2026-05-08 00:09 44.52440 27.30223 36071 ft 478 kts 309°
2026-05-08 00:10 44.56903 27.23281 36068 ft 479 kts 309°
2026-05-08 00:10 44.61351 27.16345 36069 ft 479 kts 309°
2026-05-08 00:11 44.65784 27.09417 36066 ft 479 kts 309°
2026-05-08 00:11 44.70232 27.02447 36066 ft 480 kts 309°
2026-05-08 00:12 44.74502 26.95738 36067 ft 480 kts 309°
2026-05-08 00:12 44.78972 26.88699 36061 ft 480 kts 309°
2026-05-08 00:13 44.83415 26.81685 36066 ft 480 kts 309°
2026-05-08 00:13 44.87854 26.74661 36058 ft 480 kts 309°
2026-05-08 00:14 44.92293 26.67617 36061 ft 480 kts 309°
2026-05-08 00:14 44.96693 26.60618 36059 ft 480 kts 309°
2026-05-08 00:15 45.01132 26.53540 36065 ft 480 kts 309°
2026-05-08 00:15 45.05529 26.46511 36042 ft 480 kts 309°
2026-05-08 00:16 45.09974 26.39386 36052 ft 480 kts 309°
2026-05-08 00:16 45.14389 26.32292 36070 ft 480 kts 309°
2026-05-08 00:17 45.18779 26.25220 36056 ft 481 kts 309°
2026-05-08 00:17 45.23216 26.18053 36058 ft 481 kts 309°
2026-05-08 00:18 45.27621 26.10922 36062 ft 480 kts 309°
2026-05-08 00:18 45.32025 26.03773 36067 ft 481 kts 309°
2026-05-08 00:19 45.36116 25.97116 36069 ft 480 kts 308°
2026-05-08 00:19 45.40507 25.89952 36071 ft 481 kts 308°
2026-05-08 00:20 45.44899 25.82768 36078 ft 481 kts 308°
2026-05-08 00:20 45.49286 25.75574 36071 ft 481 kts 308°
2026-05-08 00:21 45.53662 25.68380 36080 ft 481 kts 308°
2026-05-08 00:21 45.58044 25.61156 36078 ft 481 kts 308°
2026-05-08 00:22 45.62414 25.53934 36071 ft 480 kts 308°
2026-05-08 00:22 45.66772 25.46714 36064 ft 480 kts 308°
2026-05-08 00:23 45.71135 25.39467 36081 ft 480 kts 308°
2026-05-08 00:23 45.75481 25.32226 36071 ft 479 kts 308°
2026-05-08 00:24 45.79815 25.24991 36067 ft 479 kts 307°
2026-05-08 00:24 45.84139 25.17751 36076 ft 478 kts 307°
2026-05-08 00:25 45.88460 25.10496 36071 ft 478 kts 307°
2026-05-08 00:25 45.92771 25.03240 36060 ft 478 kts 307°
2026-05-08 00:26 45.96932 24.96217 36064 ft 478 kts 307°
2026-05-08 00:26 46.01216 24.88970 36078 ft 478 kts 307°
2026-05-08 00:27 46.05510 24.81686 36064 ft 478 kts 307°
2026-05-08 00:27 46.09807 24.74379 36061 ft 478 kts 307°
2026-05-08 00:28 46.14092 24.67073 36057 ft 477 kts 307°
2026-05-08 00:28 46.18348 24.59796 36067 ft 477 kts 306°
2026-05-08 00:29 46.22620 24.52471 36049 ft 478 kts 306°
2026-05-08 00:29 46.26921 24.45078 36045 ft 478 kts 306°
2026-05-08 00:30 46.31202 24.37700 36050 ft 478 kts 306°
2026-05-08 00:30 46.35441 24.30375 36070 ft 478 kts 306°
2026-05-08 00:31 46.39704 24.22990 36046 ft 479 kts 306°
2026-05-08 00:31 46.43971 24.15577 36046 ft 478 kts 306°
2026-05-08 00:32 46.48228 24.08161 36051 ft 478 kts 306°
2026-05-08 00:32 46.52502 24.00695 36061 ft 478 kts 306°
2026-05-08 00:33 46.56555 23.93598 36055 ft 479 kts 306°
2026-05-08 00:33 46.60794 23.86155 36058 ft 479 kts 306°
2026-05-08 00:34 46.65041 23.78677 36050 ft 479 kts 306°
2026-05-08 00:34 46.69280 23.71193 36060 ft 479 kts 306°
2026-05-08 00:35 46.73518 23.63690 36048 ft 480 kts 306°
2026-05-08 00:35 46.77759 23.56162 36053 ft 480 kts 306°
2026-05-08 00:36 46.81991 23.48628 36056 ft 480 kts 306°
2026-05-08 00:36 46.86227 23.41068 36059 ft 481 kts 305°
2026-05-08 00:37 46.90461 23.33490 36045 ft 482 kts 305°
2026-05-08 00:38 46.96816 23.22076 36052 ft 483 kts 305°
2026-05-08 00:38 47.01018 23.14502 36068 ft 483 kts 305°
2026-05-08 00:39 47.05252 23.06851 36053 ft 484 kts 305°
2026-05-08 00:39 47.09291 22.99531 36047 ft 484 kts 305°
2026-05-08 00:40 47.13524 22.91837 36044 ft 484 kts 305°
2026-05-08 00:40 47.17750 22.84138 36055 ft 484 kts 304°
2026-05-08 00:41 47.21977 22.76413 36050 ft 484 kts 304°
2026-05-08 00:41 47.26199 22.68677 36036 ft 485 kts 304°
2026-05-08 00:42 47.29696 22.62251 36036 ft 485 kts 304°
2026-05-08 00:42 47.33908 22.54491 36061 ft 485 kts 304°
2026-05-08 00:43 47.38121 22.46709 36041 ft 485 kts 304°
2026-05-08 00:43 47.42326 22.38918 36040 ft 485 kts 304°
2026-05-08 00:44 47.46524 22.31118 36027 ft 486 kts 304°
2026-05-08 00:44 47.50725 22.23288 36052 ft 486 kts 304°
2026-05-08 00:45 47.54924 22.15442 36038 ft 486 kts 304°
2026-05-08 00:45 47.59141 22.07615 36024 ft 487 kts 305°
2026-05-08 00:46 47.63555 21.99962 36032 ft 488 kts 307°
2026-05-08 00:46 47.67799 21.92709 36029 ft 488 kts 306°
2026-05-08 00:47 47.72236 21.85043 36040 ft 488 kts 306°
2026-05-08 00:47 47.76639 21.77356 36033 ft 489 kts 306°
2026-05-08 00:48 47.81036 21.69642 36024 ft 489 kts 306°
2026-05-08 00:48 47.85426 21.61921 36044 ft 489 kts 306°
2026-05-08 00:49 47.89820 21.54174 36026 ft 490 kts 306°
2026-05-08 00:49 47.94204 21.46422 36019 ft 490 kts 305°
2026-05-08 00:50 47.98596 21.38634 36020 ft 491 kts 305°
2026-05-08 00:50 48.02957 21.30880 36019 ft 491 kts 305°
2026-05-08 00:51 48.07338 21.23067 36021 ft 491 kts 305°
2026-05-08 00:51 48.11728 21.15214 36018 ft 491 kts 305°
2026-05-08 00:52 48.16098 21.07375 36024 ft 491 kts 305°
2026-05-08 00:52 48.20373 20.99684 36018 ft 491 kts 305°
2026-05-08 00:53 48.24661 20.91946 36028 ft 491 kts 305°
2026-05-08 00:53 48.29029 20.84044 36029 ft 492 kts 305°
2026-05-08 00:54 48.33394 20.76120 36024 ft 492 kts 305°
2026-05-08 00:54 48.37747 20.68196 36017 ft 492 kts 305°
2026-05-08 00:55 48.42133 20.60187 36023 ft 493 kts 304°
2026-05-08 00:55 48.46464 20.52259 36024 ft 493 kts 304°
2026-05-08 00:56 48.50598 20.44005 36030 ft 489 kts 299°
2026-05-08 00:56 48.54384 20.35458 36028 ft 489 kts 298°
2026-05-08 00:57 48.58140 20.26887 36027 ft 490 kts 298°
2026-05-08 00:57 48.61910 20.18327 36031 ft 490 kts 298°
2026-05-08 00:58 48.65700 20.09744 36037 ft 490 kts 298°
2026-05-08 00:58 48.69492 20.01132 36034 ft 492 kts 298°
2026-05-08 00:59 48.73134 19.92831 36049 ft 492 kts 298°
2026-05-08 00:59 48.76923 19.84173 36039 ft 493 kts 298°
2026-05-08 01:00 48.80576 19.75795 36041 ft 494 kts 298°
2026-05-08 01:00 48.84238 19.67371 36040 ft 494 kts 298°
2026-05-08 01:01 48.88014 19.58659 36052 ft 495 kts 298°
2026-05-08 01:01 48.91791 19.49912 36038 ft 495 kts 298°
2026-05-08 01:02 48.95561 19.41152 36040 ft 495 kts 298°
2026-05-08 01:02 48.99324 19.32383 36034 ft 494 kts 298°
2026-05-08 01:03 49.03051 19.23668 36062 ft 494 kts 298°
2026-05-08 01:03 49.06806 19.14860 36037 ft 495 kts 298°
2026-05-08 01:04 49.10570 19.05998 36027 ft 495 kts 298°
2026-05-08 01:04 49.14115 18.97627 36029 ft 495 kts 298°
2026-05-08 01:05 49.17825 18.88839 36060 ft 495 kts 298°
2026-05-08 01:05 49.21550 18.79983 36042 ft 495 kts 298°
2026-05-08 01:06 49.25265 18.71126 36026 ft 495 kts 298°
2026-05-08 01:06 49.28974 18.62252 36020 ft 494 kts 298°
2026-05-08 01:07 49.32694 18.53321 36046 ft 494 kts 299°
2026-05-08 01:07 49.36381 18.44440 36028 ft 494 kts 299°
2026-05-08 01:08 49.40058 18.35552 36030 ft 493 kts 298°
2026-05-08 01:08 49.43735 18.26636 36043 ft 493 kts 298°
2026-05-08 01:09 49.47393 18.17737 36047 ft 493 kts 298°
2026-05-08 01:09 49.51048 18.08811 36056 ft 493 kts 299°
2026-05-08 01:10 49.54675 17.99927 36042 ft 493 kts 298°
2026-05-08 01:10 49.58135 17.91423 36046 ft 493 kts 298°
2026-05-08 01:11 49.61790 17.82413 36046 ft 492 kts 298°
2026-05-08 01:11 49.65388 17.73510 36047 ft 492 kts 298°
2026-05-08 01:12 49.69020 17.64492 36043 ft 492 kts 298°
2026-05-08 01:12 49.72606 17.55560 36040 ft 492 kts 298°
2026-05-08 01:13 49.76227 17.46508 36050 ft 492 kts 298°
2026-05-08 01:13 49.79812 17.37514 36057 ft 492 kts 298°
2026-05-08 01:14 49.83398 17.28490 36046 ft 492 kts 298°
2026-05-08 01:14 49.86977 17.19453 36045 ft 491 kts 298°
2026-05-08 01:15 49.90543 17.10415 36047 ft 491 kts 298°
2026-05-08 01:15 49.94093 17.01386 36059 ft 491 kts 298°
2026-05-08 01:16 49.97501 16.92692 36052 ft 490 kts 298°
2026-05-08 01:16 50.00989 16.83763 36049 ft 489 kts 298°
2026-05-08 01:17 50.04506 16.74728 36064 ft 488 kts 298°
2026-05-08 01:17 50.08010 16.65695 36071 ft 487 kts 298°
2026-05-08 01:18 50.11526 16.56597 36064 ft 487 kts 298°
2026-05-08 01:18 50.15008 16.47559 36066 ft 486 kts 298°
2026-05-08 01:19 50.18475 16.38529 36063 ft 486 kts 298°
2026-05-08 01:19 50.21940 16.29469 36067 ft 486 kts 298°
2026-05-08 01:20 50.25395 16.20406 36070 ft 486 kts 298°
2026-05-08 01:20 50.28268 16.12848 36065 ft 486 kts 298°
2026-05-08 01:21 50.32291 16.02223 36071 ft 485 kts 298°
2026-05-08 01:21 50.34991 15.95065 36064 ft 485 kts 298°
2026-05-08 01:22 50.38416 15.85963 36084 ft 485 kts 298°
2026-05-08 01:22 50.41830 15.76857 36065 ft 485 kts 298°
2026-05-08 01:23 50.45240 15.67729 36071 ft 484 kts 298°
2026-05-08 01:23 50.48635 15.58608 36065 ft 484 kts 298°
2026-05-08 01:24 50.52020 15.49481 36068 ft 484 kts 298°
2026-05-08 01:24 50.55401 15.40332 36080 ft 483 kts 298°
2026-05-08 01:25 50.58766 15.31196 36069 ft 483 kts 298°
2026-05-08 01:25 50.62134 15.22019 36083 ft 483 kts 298°
2026-05-08 01:26 50.65486 15.12853 36075 ft 483 kts 298°
2026-05-08 01:26 50.68830 15.03674 36091 ft 483 kts 298°
2026-05-08 01:27 50.72007 14.94921 36080 ft 483 kts 298°
2026-05-08 01:27 50.75341 14.85708 36087 ft 483 kts 298°
2026-05-08 01:28 50.78663 14.76497 36089 ft 483 kts 298°
2026-05-08 01:28 50.81981 14.67257 36094 ft 483 kts 298°
2026-05-08 01:29 50.85285 14.58025 36094 ft 482 kts 298°
2026-05-08 01:29 50.88584 14.48776 36095 ft 482 kts 298°
2026-05-08 01:30 50.91870 14.39518 36111 ft 482 kts 297°
2026-05-08 01:30 50.94549 14.29830 36109 ft 480 kts 289°
2026-05-08 01:31 50.96811 14.19879 36103 ft 480 kts 289°
2026-05-08 01:31 50.99072 14.09892 36101 ft 480 kts 289°
2026-05-08 01:32 51.01330 14.00007 36106 ft 481 kts 289°
2026-05-08 01:32 51.03512 13.90466 36102 ft 481 kts 289°
2026-05-08 01:33 51.05792 13.80470 36107 ft 481 kts 289°
2026-05-08 01:33 51.08060 13.70471 36102 ft 481 kts 289°
2026-05-08 01:34 51.10321 13.60455 36104 ft 481 kts 289°
2026-05-08 01:34 51.12578 13.50403 36105 ft 481 kts 289°
2026-05-08 01:35 51.14820 13.40371 36108 ft 481 kts 288°
2026-05-08 01:35 51.17055 13.30320 36112 ft 481 kts 289°
2026-05-08 01:36 51.19279 13.20270 36115 ft 481 kts 288°
2026-05-08 01:36 51.21496 13.10208 36115 ft 480 kts 288°
2026-05-08 01:37 51.23696 13.00167 36114 ft 480 kts 288°
2026-05-08 01:37 51.25792 12.90559 36121 ft 479 kts 288°
2026-05-08 01:38 51.27977 12.80498 36121 ft 479 kts 288°
2026-05-08 01:38 51.30148 12.70450 36113 ft 479 kts 288°
2026-05-08 01:39 51.32310 12.60394 36125 ft 478 kts 288°
2026-05-08 01:39 51.34476 12.50269 36129 ft 478 kts 288°
2026-05-08 01:40 51.36603 12.40277 36130 ft 477 kts 288°
2026-05-08 01:40 51.38732 12.30226 36132 ft 477 kts 288°
2026-05-08 01:41 51.40868 12.20093 36126 ft 477 kts 288°
2026-05-08 01:41 51.42977 12.10033 36130 ft 477 kts 288°
2026-05-08 01:42 51.45078 11.99967 36130 ft 477 kts 288°
2026-05-08 01:42 51.47082 11.90314 36131 ft 477 kts 288°
2026-05-08 01:43 51.49155 11.80279 36137 ft 477 kts 288°
2026-05-08 01:43 51.51240 11.70142 36132 ft 477 kts 288°
2026-05-08 01:44 51.53308 11.60029 36140 ft 477 kts 288°
2026-05-08 01:44 51.55358 11.49954 36133 ft 477 kts 287°
2026-05-08 01:45 51.57413 11.39802 36134 ft 477 kts 287°
2026-05-08 01:45 51.59458 11.29647 36135 ft 477 kts 287°
2026-05-08 01:46 51.61490 11.19507 36133 ft 476 kts 287°
2026-05-08 01:46 51.63515 11.09348 36142 ft 476 kts 287°
2026-05-08 01:47 51.65473 10.99474 36137 ft 476 kts 287°
2026-05-08 01:47 51.67461 10.89398 36138 ft 476 kts 287°
2026-05-08 01:48 51.70464 10.74180 36141 ft 475 kts 287°
2026-05-08 01:48 51.72475 10.63953 36145 ft 475 kts 287°
2026-05-08 01:49 51.74450 10.53845 36141 ft 475 kts 287°
2026-05-08 01:49 51.76423 10.43684 36144 ft 475 kts 286°
2026-05-08 01:50 51.78390 10.33504 36141 ft 475 kts 286°
2026-05-08 01:50 51.80347 10.23323 36149 ft 475 kts 286°
2026-05-08 01:51 51.82299 10.13110 36139 ft 475 kts 286°
2026-05-08 01:51 51.84234 10.02929 36140 ft 475 kts 286°
2026-05-08 01:52 51.86079 9.93170 36145 ft 474 kts 286°
2026-05-08 01:52 51.87998 9.82970 36147 ft 475 kts 286°
2026-05-08 01:53 51.89914 9.72731 36144 ft 475 kts 285°
2026-05-08 01:53 51.91818 9.62500 36138 ft 475 kts 285°
2026-05-08 01:54 51.93719 9.52227 36142 ft 475 kts 285°
2026-05-08 01:54 51.95604 9.41982 36138 ft 475 kts 285°
2026-05-08 01:55 51.97483 9.31710 36129 ft 475 kts 285°
2026-05-08 01:55 51.99353 9.21434 36125 ft 475 kts 285°
2026-05-08 01:56 52.01206 9.11193 36125 ft 475 kts 285°
2026-05-08 01:56 52.03056 9.00910 36123 ft 475 kts 285°
2026-05-08 01:57 52.04840 8.90934 36133 ft 475 kts 285°
2026-05-08 01:57 52.06670 8.80651 36135 ft 475 kts 285°
2026-05-08 01:58 52.08191 8.72062 36127 ft 475 kts 285°
2026-05-08 01:58 52.10310 8.60016 36125 ft 474 kts 285°
2026-05-08 01:59 52.12114 8.49704 36125 ft 474 kts 284°
2026-05-08 01:59 52.13607 8.41119 36125 ft 474 kts 284°
2026-05-08 02:00 52.15390 8.30811 36131 ft 473 kts 284°
2026-05-08 02:00 52.17180 8.20405 36128 ft 473 kts 284°
2026-05-08 02:01 52.18944 8.10086 36130 ft 473 kts 284°
2026-05-08 02:01 52.20688 7.99831 36129 ft 473 kts 284°
2026-05-08 02:02 52.22367 7.89889 36135 ft 473 kts 284°
2026-05-08 02:02 52.24107 7.79537 36130 ft 472 kts 284°
2026-05-08 02:03 52.25833 7.69204 36130 ft 472 kts 284°
2026-05-08 02:03 52.27551 7.58855 36133 ft 472 kts 284°
2026-05-08 02:04 52.29255 7.48523 36127 ft 472 kts 284°
2026-05-08 02:04 52.30958 7.38144 36123 ft 472 kts 284°
2026-05-08 02:05 52.32649 7.27769 36113 ft 472 kts 283°
2026-05-08 02:05 52.34329 7.17393 36128 ft 473 kts 283°
2026-05-08 02:06 52.36004 7.06992 36113 ft 473 kts 283°
2026-05-08 02:06 52.37539 6.97399 36116 ft 473 kts 283°
2026-05-08 02:07 52.39195 6.86991 36115 ft 473 kts 283°
2026-05-08 02:07 52.40844 6.76559 36107 ft 473 kts 283°
2026-05-08 02:08 52.42483 6.66127 36111 ft 473 kts 283°
2026-05-08 02:08 52.44113 6.55680 36108 ft 473 kts 283°
2026-05-08 02:09 52.45731 6.45250 36118 ft 472 kts 283°
2026-05-08 02:09 52.47340 6.34811 36111 ft 472 kts 283°
2026-05-08 02:10 52.48937 6.24375 36103 ft 471 kts 283°
2026-05-08 02:10 52.50523 6.13950 36101 ft 471 kts 282°
2026-05-08 02:11 52.52101 6.03507 36109 ft 470 kts 282°
2026-05-08 02:11 52.53597 5.93541 36114 ft 470 kts 282°
2026-05-08 02:12 52.55155 5.83104 36108 ft 470 kts 282°
2026-05-08 02:12 52.56698 5.72693 36108 ft 469 kts 282°
2026-05-08 02:13 52.58235 5.62255 36125 ft 469 kts 282°
2026-05-08 02:13 52.59760 5.51830 36127 ft 468 kts 282°
2026-05-08 02:14 52.61272 5.41424 36133 ft 468 kts 282°
2026-05-08 02:14 52.62776 5.30999 36122 ft 468 kts 282°
2026-05-08 02:15 52.64271 5.20570 36117 ft 468 kts 282°
2026-05-08 02:15 52.65755 5.10145 36126 ft 468 kts 281°
2026-05-08 02:16 52.67214 4.99818 36115 ft 468 kts 281°
2026-05-08 02:16 52.68629 4.89740 36110 ft 468 kts 281°
2026-05-08 02:17 52.70085 4.79301 36101 ft 469 kts 281°
2026-05-08 02:17 52.71537 4.68819 36101 ft 469 kts 281°
2026-05-08 02:18 52.72980 4.58329 36102 ft 469 kts 281°
2026-05-08 02:18 52.74412 4.47840 36101 ft 468 kts 281°
2026-05-08 02:19 52.75836 4.37340 36102 ft 468 kts 281°
2026-05-08 02:19 52.77246 4.26864 36101 ft 468 kts 281°
2026-05-08 02:20 52.78651 4.16353 36106 ft 468 kts 281°
2026-05-08 02:20 52.80044 4.05855 36107 ft 468 kts 281°
2026-05-08 02:21 52.81359 3.95862 36112 ft 468 kts 281°
2026-05-08 02:21 52.82742 3.85295 36109 ft 468 kts 281°
2026-05-08 02:22 52.84109 3.74767 36105 ft 467 kts 280°
2026-05-08 02:22 52.85461 3.64274 36105 ft 467 kts 280°
2026-05-08 02:23 52.86793 3.53854 36108 ft 467 kts 280°
2026-05-08 02:23 52.88130 3.43326 36099 ft 467 kts 280°
2026-05-08 02:24 52.89453 3.32820 36094 ft 467 kts 280°
2026-05-08 02:24 52.90770 3.22300 36101 ft 466 kts 280°
2026-05-08 02:25 52.92086 3.11761 36093 ft 466 kts 281°
2026-05-08 02:25 52.93467 3.01272 36112 ft 466 kts 281°
2026-05-08 02:26 52.94791 2.91316 36105 ft 466 kts 281°
2026-05-08 02:26 52.96176 2.80752 36105 ft 466 kts 281°
2026-05-08 02:27 52.97528 2.70313 36110 ft 465 kts 281°
2026-05-08 02:27 52.98876 2.59818 36112 ft 466 kts 281°
2026-05-08 02:28 53.00221 2.49263 36113 ft 466 kts 280°
2026-05-08 02:28 53.01545 2.38801 36105 ft 466 kts 280°
2026-05-08 02:29 53.02868 2.28264 36100 ft 466 kts 280°
2026-05-08 02:29 53.04181 2.17741 36103 ft 466 kts 280°
2026-05-08 02:30 53.05487 2.07188 36108 ft 466 kts 280°
2026-05-08 02:30 53.06734 1.97041 36102 ft 466 kts 280°
2026-05-08 02:31 53.08027 1.86465 36103 ft 466 kts 280°
2026-05-08 02:31 53.09307 1.75909 36117 ft 466 kts 280°
2026-05-08 02:32 53.10580 1.65335 36103 ft 466 kts 279°
2026-05-08 02:32 53.11842 1.54754 36104 ft 466 kts 279°
2026-05-08 02:33 53.13094 1.44177 36100 ft 466 kts 279°
2026-05-08 02:33 53.14339 1.33573 36101 ft 466 kts 279°
2026-05-08 02:34 53.15573 1.22979 36103 ft 466 kts 279°
2026-05-08 02:34 53.16799 1.12366 36101 ft 467 kts 279°
2026-05-08 02:35 53.18017 1.01733 36108 ft 467 kts 279°
2026-05-08 02:35 53.19178 0.91517 36097 ft 467 kts 279°
2026-05-08 02:36 53.20380 0.80855 36097 ft 467 kts 279°
2026-05-08 02:36 53.21570 0.70204 36095 ft 467 kts 278°
2026-05-08 02:37 53.22755 0.59521 36093 ft 468 kts 278°
2026-05-08 02:37 53.23921 0.48925 36097 ft 468 kts 278°
2026-05-08 02:38 53.25092 0.38168 36090 ft 468 kts 278°
2026-05-08 02:38 53.26046 0.29259 36091 ft 468 kts 278°
2026-05-08 02:39 53.27183 0.18561 36079 ft 468 kts 278°
2026-05-08 02:39 53.28311 0.07878 36080 ft 468 kts 278°
2026-05-08 02:40 53.29352 -0.02081 36086 ft 468 kts 278°
2026-05-08 02:40 53.30460 -0.12809 36080 ft 468 kts 277°
2026-05-08 02:41 53.31561 -0.23544 36075 ft 468 kts 277°
2026-05-08 02:41 53.32654 -0.34282 36077 ft 468 kts 277°
2026-05-08 02:42 53.33734 -0.44992 36077 ft 468 kts 277°
2026-05-08 02:42 53.34815 -0.55723 36078 ft 468 kts 277°
2026-05-08 02:43 53.35888 -0.66472 36063 ft 468 kts 277°
2026-05-08 02:43 53.36936 -0.77244 36070 ft 468 kts 277°
2026-05-08 02:44 53.37970 -0.87996 36060 ft 468 kts 277°
2026-05-08 02:44 53.39015 -0.98762 36052 ft 468 kts 277°
2026-05-08 02:45 53.40026 -1.09016 36059 ft 468 kts 277°
2026-05-08 02:45 53.41049 -1.19776 36057 ft 468 kts 277°
2026-05-08 02:46 53.42042 -1.30562 36057 ft 468 kts 276°
2026-05-08 02:46 53.43048 -1.41330 36054 ft 468 kts 277°
2026-05-08 02:47 53.44055 -1.52112 36053 ft 467 kts 276°
2026-05-08 02:47 53.45040 -1.62872 36055 ft 467 kts 276°
2026-05-08 02:48 53.46016 -1.73662 36057 ft 467 kts 276°
2026-05-08 02:48 53.46980 -1.84444 36052 ft 467 kts 276°
2026-05-08 02:49 53.47918 -1.95225 36050 ft 467 kts 276°
2026-05-08 02:49 53.48796 -2.05441 36050 ft 467 kts 276°
2026-05-08 02:50 53.49719 -2.16227 36046 ft 467 kts 276°
2026-05-08 02:50 53.50634 -2.27015 36046 ft 466 kts 276°
2026-05-08 02:51 53.51540 -2.37775 36048 ft 466 kts 276°
2026-05-08 02:51 53.52429 -2.48449 36039 ft 465 kts 276°
2026-05-08 02:52 53.53322 -2.59283 36051 ft 465 kts 276°
2026-05-08 02:52 53.54194 -2.69982 36037 ft 464 kts 276°
2026-05-08 02:53 53.55063 -2.80776 36039 ft 462 kts 276°
2026-05-08 02:53 53.55885 -2.91108 36033 ft 461 kts 276°
2026-05-08 02:54 53.56696 -3.01413 36034 ft 460 kts 275°
2026-05-08 02:54 53.57519 -3.11999 36044 ft 459 kts 276°
2026-05-08 02:55 53.58743 -3.27971 36033 ft 458 kts 275°
2026-05-08 02:56 53.59547 -3.38607 36035 ft 458 kts 275°
2026-05-08 02:56 53.60339 -3.49227 36035 ft 457 kts 275°
2026-05-08 02:57 53.61129 -3.59927 36033 ft 457 kts 275°
2026-05-08 02:57 53.61860 -3.70538 36040 ft 456 kts 273°
2026-05-08 02:58 53.62270 -3.81202 36033 ft 456 kts 272°
2026-05-08 02:58 53.62685 -3.91867 36034 ft 456 kts 272°
2026-05-08 02:59 53.63104 -4.02075 36026 ft 455 kts 272°
2026-05-08 02:59 53.63517 -4.12700 36033 ft 455 kts 272°
2026-05-08 03:00 53.63915 -4.23336 36035 ft 454 kts 272°
2026-05-08 03:00 53.64303 -4.33925 36026 ft 452 kts 272°
2026-05-08 03:01 53.64677 -4.44500 36023 ft 450 kts 272°
2026-05-08 03:01 53.65039 -4.55004 36022 ft 449 kts 272°
2026-05-08 03:02 53.65395 -4.65509 36029 ft 448 kts 271°
2026-05-08 03:02 53.65743 -4.75999 36025 ft 447 kts 271°
2026-05-08 03:03 53.66081 -4.86458 36016 ft 446 kts 271°
2026-05-08 03:03 53.66426 -4.96885 36018 ft 445 kts 271°
2026-05-08 03:04 53.66755 -5.06940 36015 ft 444 kts 271°
2026-05-08 03:04 53.67081 -5.17305 36015 ft 443 kts 271°
2026-05-08 03:05 53.67382 -5.27717 36026 ft 442 kts 271°
2026-05-08 03:05 53.67673 -5.38061 36003 ft 441 kts 271°
2026-05-08 03:06 53.67958 -5.48384 36017 ft 440 kts 271°
2026-05-08 03:06 53.68500 -5.58662 36018 ft 439 kts 274°
2026-05-08 03:07 53.69156 -5.68887 36019 ft 439 kts 274°
2026-05-08 03:07 53.69802 -5.79136 36014 ft 439 kts 274°
2026-05-08 03:08 53.70425 -5.89363 36009 ft 439 kts 274°
2026-05-08 03:08 53.71037 -5.99637 36009 ft 439 kts 274°
2026-05-08 03:09 53.71611 -6.09435 36001 ft 440 kts 274°
2026-05-08 03:09 53.72205 -6.19697 36002 ft 440 kts 274°
2026-05-08 03:10 53.72791 -6.29988 36008 ft 440 kts 274°
2026-05-08 03:10 53.73368 -6.40258 35991 ft 439 kts 274°
2026-05-08 03:11 53.73935 -6.50519 35988 ft 438 kts 274°
2026-05-08 03:11 53.74492 -6.60768 35996 ft 437 kts 274°
2026-05-08 03:12 53.75039 -6.70993 35986 ft 436 kts 273°
2026-05-08 03:12 53.75575 -6.81187 36005 ft 435 kts 273°
2026-05-08 03:13 53.76103 -6.91375 35991 ft 435 kts 273°
2026-05-08 03:13 53.76592 -7.00977 35999 ft 434 kts 273°
2026-05-08 03:14 53.77100 -7.11118 35999 ft 433 kts 273°
2026-05-08 03:14 53.77602 -7.21262 36007 ft 433 kts 273°
2026-05-08 03:15 53.78147 -7.31406 36003 ft 435 kts 276°
2026-05-08 03:15 53.79039 -7.41534 36002 ft 436 kts 276°
2026-05-08 03:16 53.79968 -7.51666 36000 ft 436 kts 276°
2026-05-08 03:16 53.80877 -7.61813 35996 ft 436 kts 276°
2026-05-08 03:17 53.81767 -7.71972 35997 ft 437 kts 276°
2026-05-08 03:17 53.82645 -7.82140 35996 ft 437 kts 276°
2026-05-08 03:18 53.83515 -7.92320 36002 ft 436 kts 275°
2026-05-08 03:18 53.84335 -8.02005 35998 ft 435 kts 275°
2026-05-08 03:19 53.85185 -8.12143 35999 ft 434 kts 275°
2026-05-08 03:19 53.86025 -8.22272 35996 ft 434 kts 275°
2026-05-08 03:20 53.86720 -8.30726 36003 ft 433 kts 275°
2026-05-08 03:20 53.87542 -8.40834 36017 ft 433 kts 275°
2026-05-08 03:21 53.88350 -8.50878 36006 ft 432 kts 275°
2026-05-08 03:21 53.89152 -8.60955 36003 ft 432 kts 275°
2026-05-08 03:22 53.89955 -8.71141 36010 ft 432 kts 275°
2026-05-08 03:22 53.90740 -8.81245 36001 ft 432 kts 274°
2026-05-08 03:23 53.91216 -8.91326 36015 ft 431 kts 271°
2026-05-08 03:23 53.91578 -9.01002 36016 ft 433 kts 271°
2026-05-08 03:24 53.91955 -9.11238 36016 ft 433 kts 271°
2026-05-08 03:24 53.92335 -9.21457 36015 ft 434 kts 271°
2026-05-08 03:25 53.92707 -9.31549 36030 ft 434 kts 271°
2026-05-08 03:25 53.93078 -9.41814 36030 ft 434 kts 271°
2026-05-08 03:26 53.93441 -9.52103 36041 ft 434 kts 270°
2026-05-08 03:26 53.93790 -9.62256 36027 ft 434 kts 270°
2026-05-08 03:27 53.94132 -9.72475 36026 ft 433 kts 270°
2026-05-08 03:27 53.94465 -9.82677 36024 ft 433 kts 270°
2026-05-08 03:28 53.94790 -9.92894 36032 ft 432 kts 270°
2026-05-08 03:28 53.95091 -10.02625 36039 ft 432 kts 270°
2026-05-08 03:29 53.95397 -10.12809 36025 ft 431 kts 270°
2026-05-08 03:29 53.95696 -10.22976 36034 ft 431 kts 270°
2026-05-08 03:30 53.96126 -10.38209 36037 ft 430 kts 270°
2026-05-08 03:31 53.96669 -10.58524 36035 ft 431 kts 269°
2026-05-08 03:32 53.97053 -10.73760 36035 ft 431 kts 269°
2026-05-08 03:32 53.97299 -10.83936 36033 ft 431 kts 269°
2026-05-08 03:33 53.97537 -10.94120 36031 ft 431 kts 269°
2026-05-08 03:33 53.97756 -11.03862 36039 ft 431 kts 269°
2026-05-08 03:34 53.97977 -11.14041 36040 ft 431 kts 269°
2026-05-08 03:34 53.98190 -11.24242 36047 ft 433 kts 269°
2026-05-08 03:35 53.98394 -11.34503 36042 ft 435 kts 269°
2026-05-08 03:35 53.98591 -11.44788 36044 ft 437 kts 269°
2026-05-08 03:36 53.98780 -11.55130 36044 ft 438 kts 269°
2026-05-08 03:36 53.98961 -11.65477 36049 ft 439 kts 268°
2026-05-08 03:37 53.99133 -11.75855 36041 ft 440 kts 268°
2026-05-08 03:37 53.99296 -11.86246 36044 ft 440 kts 268°
2026-05-08 03:38 53.99451 -11.96644 36044 ft 439 kts 268°
2026-05-08 03:38 53.99587 -12.06451 36040 ft 439 kts 268°
2026-05-08 03:39 53.99724 -12.16795 36048 ft 438 kts 268°
2026-05-08 03:39 53.99851 -12.27150 36044 ft 438 kts 268°
2026-05-08 03:40 53.99969 -12.37508 36051 ft 438 kts 268°
2026-05-08 03:40 54.00078 -12.47848 36045 ft 439 kts 268°
2026-05-08 03:41 54.00179 -12.58200 36051 ft 439 kts 268°
2026-05-08 03:41 54.00271 -12.68601 36050 ft 440 kts 268°
2026-05-08 03:42 54.00354 -12.79001 36054 ft 440 kts 268°
2026-05-08 03:42 54.00428 -12.89390 36054 ft 441 kts 268°
2026-05-08 03:43 54.00494 -12.99834 36050 ft 441 kts 267°
2026-05-08 03:43 54.00547 -13.09802 36056 ft 442 kts 267°
2026-05-08 03:44 54.00595 -13.20235 36055 ft 442 kts 267°
2026-05-08 03:44 54.00634 -13.30664 36065 ft 442 kts 267°
2026-05-08 03:45 54.00663 -13.41114 36068 ft 442 kts 268°
2026-05-08 03:45 54.00684 -13.51592 36067 ft 443 kts 268°
2026-05-08 03:46 54.00695 -13.62041 36060 ft 443 kts 267°
2026-05-08 03:46 54.00698 -13.72539 36065 ft 444 kts 267°
2026-05-08 03:47 54.00691 -13.83028 36070 ft 444 kts 267°
2026-05-08 03:47 54.00675 -13.93543 36063 ft 445 kts 267°
2026-05-08 03:48 54.00652 -14.03425 36070 ft 445 kts 267°
2026-05-08 03:48 54.00618 -14.13964 36067 ft 446 kts 267°
2026-05-08 03:49 54.00575 -14.24498 36068 ft 446 kts 267°
2026-05-08 03:49 54.00523 -14.35038 36074 ft 446 kts 267°
2026-05-08 03:50 54.00462 -14.45581 36076 ft 446 kts 267°
2026-05-08 03:50 54.00391 -14.56136 36074 ft 447 kts 266°
2026-05-08 03:51 54.00311 -14.66701 36076 ft 447 kts 266°
2026-05-08 03:51 54.00222 -14.77254 36077 ft 447 kts 266°
2026-05-08 03:52 54.00125 -14.87820 36075 ft 447 kts 266°
2026-05-08 03:52 54.00018 -14.98409 36081 ft 448 kts 266°
2026-05-08 03:53 54.00127 -15.08549 36081 ft 449 kts 269°
2026-05-08 03:53 54.00353 -15.19160 36085 ft 450 kts 269°
2026-05-08 03:54 54.00572 -15.29787 36087 ft 450 kts 269°
2026-05-08 03:54 54.00769 -15.40422 36087 ft 450 kts 269°
2026-05-08 03:55 54.00950 -15.51072 36100 ft 451 kts 269°
2026-05-08 03:55 54.01121 -15.61730 36092 ft 452 kts 269°
2026-05-08 03:56 54.01283 -15.72454 36089 ft 454 kts 269°
2026-05-08 03:56 54.01436 -15.83173 36095 ft 454 kts 269°
2026-05-08 03:57 54.01580 -15.93910 36095 ft 455 kts 269°
2026-05-08 03:57 54.01708 -16.04183 36096 ft 455 kts 269°
2026-05-08 03:58 54.01834 -16.14941 36098 ft 455 kts 269°
2026-05-08 03:58 54.01950 -16.25705 36099 ft 455 kts 269°
2026-05-08 03:59 54.02056 -16.36472 36099 ft 455 kts 269°
2026-05-08 03:59 54.02153 -16.47246 36100 ft 455 kts 269°
2026-05-08 04:00 54.02240 -16.58006 36101 ft 455 kts 269°
2026-05-08 04:00 54.02305 -16.66951 36107 ft 455 kts 269°
2026-05-08 04:01 54.02385 -16.79505 36105 ft 455 kts 269°
2026-05-08 04:01 54.02434 -16.88438 36108 ft 454 kts 269°
2026-05-08 04:02 54.02484 -16.99192 36107 ft 454 kts 269°
2026-05-08 04:02 54.02523 -17.09512 36113 ft 454 kts 269°
2026-05-08 04:03 54.02554 -17.20254 36108 ft 455 kts 269°
2026-05-08 04:03 54.02583 -17.36425 36121 ft 457 kts 269°
2026-05-08 04:04 54.02591 -17.47221 36118 ft 458 kts 269°
2026-05-08 04:04 54.02588 -17.58054 36118 ft 458 kts 269°
2026-05-08 04:05 54.02576 -17.68902 36119 ft 459 kts 269°
2026-05-08 04:05 54.02554 -17.79735 36125 ft 460 kts 269°
2026-05-08 04:06 54.02523 -17.90623 36123 ft 460 kts 269°
2026-05-08 04:06 54.02483 -18.01129 36131 ft 460 kts 269°
2026-05-08 04:07 54.02431 -18.11937 36128 ft 460 kts 269°
2026-05-08 04:07 54.02371 -18.22809 36127 ft 460 kts 269°
2026-05-08 04:08 54.02301 -18.33671 36129 ft 460 kts 269°
2026-05-08 04:08 54.02220 -18.44547 36132 ft 460 kts 269°
2026-05-08 04:09 54.02130 -18.55413 36130 ft 460 kts 269°
2026-05-08 04:09 54.02030 -18.66291 36140 ft 460 kts 269°
2026-05-08 04:10 54.01920 -18.77178 36128 ft 460 kts 269°
2026-05-08 04:10 54.01801 -18.88042 36144 ft 460 kts 269°
2026-05-08 04:11 54.01671 -18.98882 36150 ft 460 kts 269°
2026-05-08 04:11 54.01537 -19.09320 36146 ft 461 kts 269°
2026-05-08 04:12 54.01389 -19.20225 36142 ft 461 kts 269°
2026-05-08 04:12 54.01231 -19.31106 36143 ft 461 kts 269°
2026-05-08 04:13 54.01062 -19.42026 36151 ft 461 kts 269°
2026-05-08 04:13 54.00883 -19.52930 36159 ft 462 kts 269°
2026-05-08 04:14 54.00694 -19.63841 36155 ft 462 kts 269°
2026-05-08 04:14 54.00495 -19.74775 36159 ft 463 kts 269°
2026-05-08 04:15 54.00287 -19.85703 36143 ft 463 kts 269°
2026-05-08 04:15 54.00070 -19.96621 36165 ft 463 kts 269°
2026-05-08 04:16 53.99664 -20.07005 36163 ft 463 kts 265°
2026-05-08 04:16 53.99017 -20.17903 36172 ft 464 kts 265°
2026-05-08 04:17 53.98346 -20.28796 36165 ft 464 kts 265°
2026-05-08 04:17 53.97682 -20.39720 36159 ft 464 kts 265°
2026-05-08 04:18 53.97021 -20.50628 36166 ft 465 kts 265°
2026-05-08 04:18 53.96353 -20.61544 36176 ft 465 kts 265°
2026-05-08 04:19 53.95673 -20.72485 36175 ft 466 kts 265°
2026-05-08 04:19 53.94983 -20.83427 36178 ft 466 kts 265°
2026-05-08 04:20 53.94282 -20.94350 36174 ft 466 kts 265°
2026-05-08 04:20 53.93605 -21.04761 36186 ft 467 kts 265°
2026-05-08 04:21 53.92882 -21.15739 36186 ft 468 kts 265°
2026-05-08 04:21 53.92149 -21.26711 36186 ft 469 kts 265°
2026-05-08 04:22 53.91404 -21.37699 36186 ft 469 kts 265°
2026-05-08 04:22 53.90649 -21.48680 36171 ft 470 kts 265°
2026-05-08 04:23 53.89883 -21.59674 36184 ft 470 kts 265°
2026-05-08 04:23 53.89106 -21.70682 36192 ft 470 kts 265°
2026-05-08 04:24 53.88320 -21.81667 36191 ft 470 kts 265°
2026-05-08 04:24 53.87522 -21.92676 36196 ft 470 kts 265°
2026-05-08 04:25 53.86758 -22.03088 36195 ft 470 kts 265°
2026-05-08 04:25 53.85937 -22.14129 36199 ft 470 kts 265°
2026-05-08 04:26 53.85116 -22.25038 36198 ft 470 kts 265°
2026-05-08 04:26 53.84279 -22.36023 36202 ft 470 kts 265°
2026-05-08 04:27 53.83435 -22.46973 36202 ft 469 kts 265°
2026-05-08 04:27 53.82579 -22.57927 36191 ft 469 kts 265°
2026-05-08 04:28 53.81718 -22.68836 36212 ft 469 kts 265°
2026-05-08 04:28 53.80837 -22.79844 36208 ft 470 kts 265°
2026-05-08 04:29 53.79952 -22.90789 36204 ft 470 kts 265°
2026-05-08 04:29 53.79090 -23.01314 36213 ft 471 kts 265°
2026-05-08 04:30 53.78183 -23.12269 36217 ft 471 kts 265°
2026-05-08 04:30 53.77265 -23.23242 36223 ft 471 kts 265°
2026-05-08 04:31 53.76337 -23.34209 36223 ft 472 kts 265°
2026-05-08 04:31 53.75395 -23.45208 36226 ft 472 kts 265°
2026-05-08 04:32 53.74445 -23.56175 36225 ft 473 kts 265°
2026-05-08 04:32 53.73482 -23.67180 36221 ft 473 kts 265°
2026-05-08 04:33 53.72511 -23.78149 36225 ft 473 kts 265°
2026-05-08 04:33 53.71530 -23.89126 36233 ft 473 kts 265°
2026-05-08 04:34 53.70541 -24.00064 36232 ft 473 kts 265°
2026-05-08 04:34 53.69581 -24.10565 36208 ft 474 kts 265°
2026-05-08 04:35 53.68568 -24.21547 36230 ft 473 kts 265°
2026-05-08 04:35 53.67546 -24.32513 36238 ft 474 kts 265°
2026-05-08 04:36 53.66513 -24.43490 36242 ft 474 kts 265°
2026-05-08 04:36 53.65468 -24.54468 36243 ft 474 kts 265°
2026-05-08 04:37 53.64415 -24.65426 36223 ft 474 kts 265°
2026-05-08 04:37 53.63349 -24.76401 36241 ft 474 kts 265°
2026-05-08 04:38 53.62276 -24.87353 36252 ft 474 kts 265°
2026-05-08 04:38 53.61191 -24.98317 36250 ft 475 kts 265°
2026-05-08 04:39 53.60142 -25.08799 36253 ft 475 kts 265°
2026-05-08 04:39 53.59038 -25.19742 36243 ft 474 kts 265°
2026-05-08 04:40 53.57924 -25.30690 36254 ft 474 kts 265°
2026-05-08 04:40 53.56798 -25.41638 36258 ft 475 kts 265°
2026-05-08 04:41 53.55857 -25.50718 36255 ft 475 kts 265°
2026-05-08 04:41 53.54710 -25.61682 36265 ft 476 kts 265°
2026-05-08 04:42 53.53367 -25.74398 36265 ft 476 kts 266°
2026-05-08 04:42 53.52386 -25.83597 36264 ft 477 kts 266°
2026-05-08 04:43 53.51208 -25.94560 36271 ft 477 kts 265°
2026-05-08 04:43 53.50071 -26.05036 36273 ft 478 kts 265°
2026-05-08 04:44 53.48871 -26.16005 36274 ft 478 kts 265°
2026-05-08 04:44 53.47661 -26.26957 36272 ft 477 kts 266°
2026-05-08 04:45 53.46444 -26.37889 36278 ft 477 kts 266°
2026-05-08 04:45 53.45215 -26.48829 36282 ft 476 kts 266°
2026-05-08 04:46 53.43979 -26.59742 36292 ft 476 kts 265°
2026-05-08 04:46 53.42730 -26.70663 36273 ft 476 kts 266°
2026-05-08 04:47 53.41476 -26.81533 36296 ft 475 kts 266°
2026-05-08 04:47 53.40214 -26.92397 36295 ft 475 kts 266°
2026-05-08 04:48 53.39006 -27.02702 36289 ft 475 kts 266°
2026-05-08 04:48 53.37726 -27.13543 36294 ft 475 kts 266°
2026-05-08 04:49 53.36431 -27.24412 36300 ft 475 kts 266°
2026-05-08 04:49 53.35129 -27.35253 36305 ft 475 kts 266°
2026-05-08 04:50 53.33817 -27.46086 36304 ft 476 kts 265°
2026-05-08 04:50 53.32491 -27.56947 36308 ft 476 kts 265°
2026-05-08 04:51 53.31156 -27.67788 36301 ft 476 kts 266°
2026-05-08 04:51 53.29814 -27.78612 36302 ft 475 kts 266°
2026-05-08 04:52 53.28463 -27.89415 36307 ft 475 kts 266°
2026-05-08 04:52 53.27113 -28.00134 36316 ft 475 kts 266°
2026-05-08 04:53 53.25804 -28.10433 36317 ft 475 kts 266°
2026-05-08 04:53 53.24427 -28.21210 36324 ft 475 kts 266°
2026-05-08 04:54 53.23037 -28.31980 36325 ft 474 kts 266°
2026-05-08 04:54 53.21640 -28.42741 36326 ft 474 kts 266°
2026-05-08 04:55 53.20234 -28.53484 36327 ft 474 kts 266°
2026-05-08 04:55 53.18819 -28.64217 36332 ft 474 kts 266°
2026-05-08 04:56 53.17391 -28.74971 36280 ft 474 kts 266°
2026-05-08 04:56 53.15956 -28.85679 36334 ft 473 kts 266°
2026-05-08 04:57 53.14526 -28.96291 36345 ft 473 kts 266°
2026-05-08 04:57 53.13120 -29.06641 36345 ft 473 kts 266°
2026-05-08 04:58 53.11660 -29.17324 36347 ft 473 kts 265°
2026-05-08 04:58 53.10187 -29.28018 36306 ft 473 kts 265°
2026-05-08 04:59 53.08713 -29.38643 36338 ft 472 kts 265°
2026-05-08 04:59 53.07228 -29.49274 36344 ft 472 kts 265°
2026-05-08 05:00 53.05732 -29.59912 36354 ft 472 kts 265°
2026-05-08 05:00 53.04228 -29.70527 36355 ft 472 kts 265°
2026-05-08 05:01 53.02713 -29.81146 36346 ft 471 kts 264°
2026-05-08 05:01 53.01196 -29.91719 36349 ft 470 kts 264°
2026-05-08 05:02 52.99779 -30.01816 36359 ft 467 kts 267°
2026-05-08 05:02 52.98630 -30.12381 36360 ft 464 kts 268°
2026-05-08 05:03 52.97558 -30.22939 36360 ft 464 kts 268°
2026-05-08 05:03 52.96465 -30.33479 36357 ft 462 kts 267°
2026-05-08 05:04 52.95349 -30.43986 36357 ft 462 kts 267°
2026-05-08 05:04 52.94217 -30.54459 36369 ft 461 kts 267°
2026-05-08 05:05 52.93076 -30.64922 36372 ft 461 kts 267°
2026-05-08 05:05 52.91928 -30.75356 36372 ft 461 kts 267°
2026-05-08 05:06 52.90770 -30.85794 36369 ft 460 kts 266°
2026-05-08 05:06 52.89607 -30.96195 36369 ft 459 kts 266°
2026-05-08 05:07 52.88488 -31.06122 36371 ft 459 kts 266°
2026-05-08 05:07 52.87309 -31.16501 36378 ft 459 kts 266°
2026-05-08 05:08 52.86122 -31.26864 36378 ft 459 kts 266°
2026-05-08 05:08 52.84925 -31.37225 36373 ft 458 kts 266°
2026-05-08 05:09 52.83723 -31.47545 36387 ft 457 kts 266°
2026-05-08 05:09 52.82520 -31.57795 36376 ft 456 kts 266°
2026-05-08 05:10 52.80687 -31.73259 36386 ft 455 kts 266°
2026-05-08 05:11 52.79459 -31.83520 36360 ft 454 kts 266°
2026-05-08 05:11 52.78233 -31.93676 36382 ft 453 kts 266°
2026-05-08 05:12 52.77050 -32.03415 36384 ft 452 kts 266°
2026-05-08 05:12 52.75805 -32.13584 36388 ft 452 kts 266°
2026-05-08 05:13 52.74550 -32.23765 36389 ft 452 kts 266°
2026-05-08 05:13 52.73286 -32.33941 36391 ft 453 kts 266°
2026-05-08 05:14 52.72011 -32.44121 36395 ft 453 kts 265°
2026-05-08 05:14 52.70726 -32.54311 36395 ft 454 kts 265°
2026-05-08 05:15 52.69431 -32.64505 36400 ft 455 kts 265°
2026-05-08 05:15 52.68118 -32.74765 36399 ft 455 kts 265°
2026-05-08 05:16 52.66800 -32.84976 36364 ft 455 kts 265°
2026-05-08 05:16 52.65479 -32.95143 36385 ft 454 kts 265°
2026-05-08 05:17 52.64205 -33.04873 36396 ft 453 kts 265°
2026-05-08 05:17 52.62873 -33.14992 36402 ft 451 kts 265°
2026-05-08 05:18 52.61543 -33.25016 36402 ft 451 kts 265°
2026-05-08 05:18 52.60201 -33.35068 36356 ft 450 kts 265°
2026-05-08 05:19 52.58853 -33.45081 36393 ft 447 kts 265°
2026-05-08 05:19 52.57496 -33.55103 36405 ft 446 kts 265°
2026-05-08 05:20 52.56150 -33.64979 36400 ft 445 kts 265°
2026-05-08 05:20 52.54788 -33.74902 36405 ft 445 kts 265°
2026-05-08 05:21 52.53422 -33.84797 36356 ft 444 kts 265°
2026-05-08 05:21 52.52049 -33.94662 36394 ft 443 kts 265°
2026-05-08 05:22 52.50729 -34.04092 36406 ft 443 kts 265°
2026-05-08 05:22 52.49567 -34.12345 36403 ft 443 kts 265°
2026-05-08 05:23 52.48183 -34.22117 36404 ft 443 kts 265°
2026-05-08 05:23 52.46770 -34.32029 36405 ft 443 kts 265°
2026-05-08 05:24 52.45359 -34.41862 36408 ft 442 kts 264°
2026-05-08 05:24 52.43942 -34.51667 36411 ft 442 kts 264°
2026-05-08 05:25 52.42518 -34.61472 36391 ft 442 kts 264°
2026-05-08 05:25 52.41084 -34.71274 36404 ft 442 kts 264°
2026-05-08 05:26 52.39642 -34.81071 36407 ft 442 kts 264°
2026-05-08 05:26 52.38208 -34.90752 36397 ft 441 kts 264°
2026-05-08 05:27 52.36777 -35.00355 36402 ft 441 kts 263°
2026-05-08 05:27 52.35354 -35.09844 36404 ft 441 kts 263°
2026-05-08 05:28 52.33886 -35.19575 36403 ft 441 kts 263°
2026-05-08 05:28 52.32397 -35.29388 36405 ft 441 kts 263°
2026-05-08 05:29 52.30924 -35.39038 36392 ft 440 kts 263°
2026-05-08 05:29 52.29433 -35.48740 36397 ft 440 kts 263°
2026-05-08 05:30 52.27937 -35.58424 36396 ft 440 kts 263°
2026-05-08 05:30 52.26431 -35.68113 36394 ft 440 kts 263°
2026-05-08 05:31 52.24916 -35.77803 36413 ft 440 kts 263°
2026-05-08 05:31 52.23385 -35.87536 36385 ft 440 kts 263°
2026-05-08 05:32 52.21859 -35.97176 36386 ft 439 kts 263°
2026-05-08 05:32 52.20392 -36.06392 36389 ft 439 kts 262°
2026-05-08 05:33 52.18842 -36.16074 36397 ft 438 kts 262°
2026-05-08 05:33 52.17298 -36.25674 36396 ft 438 kts 262°
2026-05-08 05:34 52.15747 -36.35255 36378 ft 437 kts 262°
2026-05-08 05:34 52.14202 -36.44742 36382 ft 436 kts 262°
2026-05-08 05:35 52.12636 -36.54307 36394 ft 434 kts 262°
2026-05-08 05:35 52.11072 -36.63802 36392 ft 434 kts 261°
2026-05-08 05:36 52.09515 -36.73208 36391 ft 433 kts 261°
2026-05-08 05:36 52.07941 -36.82669 36363 ft 433 kts 261°
2026-05-08 05:37 52.06362 -36.92099 36378 ft 432 kts 261°
2026-05-08 05:37 52.04853 -37.01069 36385 ft 432 kts 261°
2026-05-08 05:38 52.03260 -37.10482 36386 ft 432 kts 261°
2026-05-08 05:38 52.01661 -37.19881 36386 ft 432 kts 261°
2026-05-08 05:39 52.00053 -37.29290 36387 ft 432 kts 260°
2026-05-08 05:39 51.98444 -37.38649 36385 ft 433 kts 260°
2026-05-08 05:40 51.96816 -37.48064 36383 ft 433 kts 260°
2026-05-08 05:40 51.95183 -37.57464 36383 ft 434 kts 260°
2026-05-08 05:41 51.93538 -37.66876 36375 ft 434 kts 260°
2026-05-08 05:41 51.91885 -37.76285 36375 ft 434 kts 260°
2026-05-08 05:42 51.90231 -37.85656 36365 ft 433 kts 259°
2026-05-08 05:42 51.88567 -37.95031 36369 ft 433 kts 259°
2026-05-08 05:43 51.86965 -38.04011 36373 ft 433 kts 259°
2026-05-08 05:43 51.85284 -38.13386 36371 ft 434 kts 259°
2026-05-08 05:44 51.83598 -38.22743 36373 ft 434 kts 259°
2026-05-08 05:44 51.81905 -38.32088 36363 ft 433 kts 258°
2026-05-08 05:45 51.80206 -38.41417 36368 ft 433 kts 258°
2026-05-08 05:45 51.78495 -38.50766 36363 ft 433 kts 258°
2026-05-08 05:46 51.76781 -38.60088 36363 ft 433 kts 258°
2026-05-08 05:46 51.75060 -38.69396 36358 ft 433 kts 258°
2026-05-08 05:47 51.73330 -38.78707 36360 ft 433 kts 258°
2026-05-08 05:47 51.71594 -38.88002 36359 ft 433 kts 257°
2026-05-08 05:48 51.69849 -38.97304 36354 ft 433 kts 257°
2026-05-08 05:48 51.68179 -39.06158 36353 ft 433 kts 257°
2026-05-08 05:49 51.66424 -39.15420 36349 ft 433 kts 257°
2026-05-08 05:49 51.64662 -39.24676 36334 ft 432 kts 257°
2026-05-08 05:50 51.62892 -39.33926 36340 ft 432 kts 257°
2026-05-08 05:50 51.61115 -39.43167 36349 ft 432 kts 256°
2026-05-08 05:51 51.59333 -39.52391 36344 ft 433 kts 256°
2026-05-08 05:51 51.57536 -39.61644 36346 ft 433 kts 256°
2026-05-08 05:52 51.55735 -39.70878 36321 ft 433 kts 256°
2026-05-08 05:52 51.53925 -39.80117 36325 ft 434 kts 256°
2026-05-08 05:53 51.52109 -39.89347 36331 ft 434 kts 256°
2026-05-08 05:53 51.50299 -39.98599 36331 ft 434 kts 258°
2026-05-08 05:54 51.49161 -40.07618 36332 ft 431 kts 263°
2026-05-08 05:54 51.48191 -40.17140 36312 ft 432 kts 263°
2026-05-08 05:55 51.47196 -40.26717 36310 ft 432 kts 263°
2026-05-08 05:55 51.46197 -40.36153 36317 ft 433 kts 263°
2026-05-08 05:56 51.45172 -40.45731 36321 ft 433 kts 263°
2026-05-08 05:56 51.44152 -40.55185 36318 ft 433 kts 263°
2026-05-08 05:57 51.43112 -40.64744 36316 ft 433 kts 262°
2026-05-08 05:57 51.42071 -40.74241 36318 ft 433 kts 262°
2026-05-08 05:58 51.41020 -40.83754 36314 ft 433 kts 262°
2026-05-08 05:58 51.39964 -40.93239 36313 ft 433 kts 262°
2026-05-08 05:59 51.38948 -41.02292 36312 ft 434 kts 262°
2026-05-08 05:59 51.37874 -41.11790 36308 ft 434 kts 262°
2026-05-08 06:00 51.36794 -41.21281 36307 ft 434 kts 262°
2026-05-08 06:00 51.35704 -41.30783 36306 ft 434 kts 261°
2026-05-08 06:01 51.34606 -41.40279 36306 ft 434 kts 261°
2026-05-08 06:01 51.33688 -41.48167 36305 ft 435 kts 261°
2026-05-08 06:02 51.32570 -41.57701 36302 ft 436 kts 261°
2026-05-08 06:02 51.31450 -41.67186 36302 ft 436 kts 261°
2026-05-08 06:03 51.30313 -41.76745 36288 ft 436 kts 261°
2026-05-08 06:03 51.29173 -41.86262 36296 ft 437 kts 261°
2026-05-08 06:04 51.28022 -41.95804 36293 ft 437 kts 261°
2026-05-08 06:04 51.26912 -42.04932 36294 ft 437 kts 261°
2026-05-08 06:05 51.25745 -42.14469 36294 ft 438 kts 261°
2026-05-08 06:05 51.24571 -42.23991 36291 ft 438 kts 261°
2026-05-08 06:06 51.23389 -42.33515 36290 ft 437 kts 261°
2026-05-08 06:06 51.22201 -42.43021 36296 ft 438 kts 261°
2026-05-08 06:07 51.21001 -42.52554 36289 ft 438 kts 261°
2026-05-08 06:07 51.19796 -42.62063 36287 ft 438 kts 261°
2026-05-08 06:08 51.18581 -42.71576 36287 ft 439 kts 261°
2026-05-08 06:08 51.17355 -42.81117 36269 ft 439 kts 260°
2026-05-08 06:09 51.16121 -42.90656 36285 ft 439 kts 260°
2026-05-08 06:09 51.14887 -43.00128 36279 ft 440 kts 260°
2026-05-08 06:10 51.13684 -43.09294 36280 ft 441 kts 260°
2026-05-08 06:10 51.12423 -43.18852 36281 ft 441 kts 260°
2026-05-08 06:11 51.11153 -43.28408 36280 ft 442 kts 260°
2026-05-08 06:11 51.09873 -43.37974 36270 ft 442 kts 260°
2026-05-08 06:12 51.08585 -43.47534 36280 ft 443 kts 260°
2026-05-08 06:12 51.07284 -43.57137 36276 ft 444 kts 260°
2026-05-08 06:13 51.05974 -43.66730 36274 ft 445 kts 260°
2026-05-08 06:13 51.04655 -43.76335 36273 ft 445 kts 260°
2026-05-08 06:14 51.03326 -43.85946 36257 ft 445 kts 260°
2026-05-08 06:14 51.01991 -43.95536 36268 ft 445 kts 260°
2026-05-08 06:15 51.00711 -44.04676 36263 ft 444 kts 259°
2026-05-08 06:15 50.99371 -44.14184 36265 ft 444 kts 259°
2026-05-08 06:16 50.98016 -44.23741 36263 ft 444 kts 259°
2026-05-08 06:16 50.96652 -44.33301 36266 ft 444 kts 259°
2026-05-08 06:17 50.94596 -44.47595 36257 ft 442 kts 259°
2026-05-08 06:17 50.93223 -44.57068 36252 ft 441 kts 259°
2026-05-08 06:18 50.91840 -44.66551 36250 ft 441 kts 259°
2026-05-08 06:18 50.90453 -44.76000 36249 ft 440 kts 259°
2026-05-08 06:19 50.89062 -44.85421 36232 ft 440 kts 259°
2026-05-08 06:19 50.87663 -44.94841 36242 ft 438 kts 259°
2026-05-08 06:20 50.86324 -45.03800 36240 ft 437 kts 259°
2026-05-08 06:20 50.84920 -45.13145 36233 ft 436 kts 259°
2026-05-08 06:21 50.83511 -45.22463 36234 ft 435 kts 259°
2026-05-08 06:21 50.82096 -45.31772 36239 ft 435 kts 259°
2026-05-08 06:22 50.80675 -45.41060 36225 ft 433 kts 259°
2026-05-08 06:22 50.79254 -45.50299 36221 ft 432 kts 259°
2026-05-08 06:23 50.77833 -45.59489 36221 ft 430 kts 259°
2026-05-08 06:23 50.76404 -45.68675 36211 ft 430 kts 259°
2026-05-08 06:24 50.74973 -45.77818 36212 ft 429 kts 259°
2026-05-08 06:24 50.73563 -45.86782 36204 ft 429 kts 259°
2026-05-08 06:25 50.72109 -45.95969 36204 ft 429 kts 259°
2026-05-08 06:25 50.70720 -46.04705 36197 ft 428 kts 259°
2026-05-08 06:26 50.69266 -46.13796 36192 ft 428 kts 259°
2026-05-08 06:26 50.67805 -46.22880 36203 ft 427 kts 259°
2026-05-08 06:27 50.66339 -46.31946 36189 ft 426 kts 259°
2026-05-08 06:27 50.64871 -46.40976 36187 ft 425 kts 259°
2026-05-08 06:28 50.63399 -46.49981 36171 ft 423 kts 259°
2026-05-08 06:28 50.61925 -46.58950 36173 ft 422 kts 259°
2026-05-08 06:29 50.60448 -46.67897 36168 ft 422 kts 259°
2026-05-08 06:29 50.58966 -46.76820 36169 ft 422 kts 259°
2026-05-08 06:30 50.57476 -46.85752 36161 ft 422 kts 259°
2026-05-08 06:30 50.55979 -46.94672 36157 ft 422 kts 259°
2026-05-08 06:31 50.54542 -47.03192 36153 ft 422 kts 259°
2026-05-08 06:31 50.53035 -47.12082 36155 ft 421 kts 259°
2026-05-08 06:32 50.51521 -47.20973 36155 ft 421 kts 259°
2026-05-08 06:32 50.50002 -47.29840 36133 ft 419 kts 259°
2026-05-08 06:33 50.48485 -47.38654 36137 ft 418 kts 259°
2026-05-08 06:33 50.46965 -47.47443 36135 ft 417 kts 258°
2026-05-08 06:34 50.45442 -47.56205 36125 ft 416 kts 258°
2026-05-08 06:34 50.43913 -47.64961 36126 ft 416 kts 258°
2026-05-08 06:35 50.42379 -47.73700 36120 ft 416 kts 258°
2026-05-08 06:35 50.40836 -47.82446 36120 ft 417 kts 258°
2026-05-08 06:36 50.39281 -47.91214 36107 ft 417 kts 258°
2026-05-08 06:36 50.37724 -47.99956 36102 ft 417 kts 258°
2026-05-08 06:37 50.36222 -48.08341 36096 ft 417 kts 258°
2026-05-08 06:37 50.34656 -48.17053 36099 ft 415 kts 258°
2026-05-08 06:38 50.33088 -48.25729 36080 ft 413 kts 258°
2026-05-08 06:38 50.31521 -48.34358 36074 ft 411 kts 257°
2026-05-08 06:39 50.29953 -48.42951 36077 ft 410 kts 257°
2026-05-08 06:39 50.28388 -48.51494 36068 ft 409 kts 257°
2026-05-08 06:40 50.26813 -48.60044 36071 ft 408 kts 257°
2026-05-08 06:40 50.25239 -48.68556 36055 ft 409 kts 257°
2026-05-08 06:41 50.23918 -48.75666 36056 ft 410 kts 257°
2026-05-08 06:41 50.22326 -48.84205 36047 ft 410 kts 257°
2026-05-08 06:42 50.20458 -48.94168 36046 ft 411 kts 257°
2026-05-08 06:42 50.19184 -49.00929 36065 ft 412 kts 257°
2026-05-08 06:43 50.17302 -49.10877 36035 ft 409 kts 256°
2026-05-08 06:43 50.15951 -49.17983 36025 ft 407 kts 256°
2026-05-08 06:44 50.14338 -49.26434 36015 ft 405 kts 256°
2026-05-08 06:44 50.12734 -49.34806 36033 ft 403 kts 256°
2026-05-08 06:45 50.11127 -49.43158 35992 ft 401 kts 256°
2026-05-08 06:45 50.09517 -49.51486 35994 ft 400 kts 256°
2026-05-08 06:46 50.07907 -49.59776 35997 ft 400 kts 256°
2026-05-08 06:46 50.06291 -49.68063 35987 ft 401 kts 255°
2026-05-08 06:47 50.04662 -49.76385 35971 ft 402 kts 255°
2026-05-08 06:47 50.03027 -49.84697 35965 ft 403 kts 256°
2026-05-08 06:48 50.01379 -49.93045 35958 ft 403 kts 256°
2026-05-08 06:48 49.99781 -50.00957 35948 ft 404 kts 253°
2026-05-08 06:49 49.97814 -50.09147 35951 ft 405 kts 252°
2026-05-08 06:49 49.95840 -50.17335 35932 ft 404 kts 252°
2026-05-08 06:50 49.93866 -50.25505 35931 ft 404 kts 252°
2026-05-08 06:50 49.91899 -50.33623 35928 ft 404 kts 253°
2026-05-08 06:51 49.89899 -50.41854 35924 ft 405 kts 253°
2026-05-08 06:51 49.87920 -50.49968 35924 ft 405 kts 253°
2026-05-08 06:52 49.85922 -50.58127 35917 ft 405 kts 253°
2026-05-08 06:52 49.83941 -50.66176 35921 ft 397 kts 253°
2026-05-08 06:53 49.81958 -50.74233 35913 ft 405 kts 251°
2026-05-08 06:53 49.79926 -50.82447 35918 ft 411 kts 251°
2026-05-08 06:54 49.77868 -50.90727 35916 ft 412 kts 251°
2026-05-08 06:54 49.75807 -50.98988 35881 ft 411 kts 250°
2026-05-08 06:55 49.73853 -51.06791 35868 ft 408 kts 250°
2026-05-08 06:55 49.71805 -51.14943 35884 ft 406 kts 250°
2026-05-08 06:56 49.69763 -51.23045 35887 ft 404 kts 250°
2026-05-08 06:56 49.67717 -51.31134 35873 ft 403 kts 250°
2026-05-08 06:57 49.65671 -51.39193 35872 ft 404 kts 250°
2026-05-08 06:57 49.63616 -51.47259 35867 ft 405 kts 250°
2026-05-08 06:58 49.61551 -51.55335 35868 ft 406 kts 250°
2026-05-08 06:58 49.59470 -51.63443 35855 ft 407 kts 250°
2026-05-08 06:59 49.57379 -51.71566 35858 ft 409 kts 250°
2026-05-08 06:59 49.55273 -51.79714 35856 ft 410 kts 250°
2026-05-08 07:00 49.53156 -51.87876 35879 ft 410 kts 250°
2026-05-08 07:00 49.51045 -51.95995 35845 ft 409 kts 249°
2026-05-08 07:01 49.49002 -52.03651 35837 ft 408 kts 247°
2026-05-08 07:01 49.46661 -52.11594 35823 ft 407 kts 246°